TAP223 LPPT-KMIA

Flight info

Callsign TAP223
Flight time 9h 45m
Altitude 30000
Route ELNUB DCT ERPES/M083F300 DCT 41N020W 4230N03000W/M083F320 44N040W 43N050W 42N055W/M083F340 40N060W DCT SELIM M203 WILYY/M083F360 M203 SNAGY/N0481F360 BNFSH3
Aircraft A339/H-SADE1E2E3GHIJ3J5M1P2RWXY/LB2D1

Departure

Time 2026-05-04 14:37
Airport Lisbon Humberto Delgado Airport (LPPT)

Arrival

Time 2026-05-05 00:23
Airport Miami International Airport (KMIA)
Time Latitude Longitude Altitude Speed Heading
2026-05-04 14:00 38.76946 -9.13614 354 ft 0 kts 258°
2026-05-04 14:26 38.76947 -9.13613 360 ft 2 kts 258°
2026-05-04 14:27 38.76951 -9.13585 356 ft 4 kts 286°
2026-05-04 14:27 38.76941 -9.13555 362 ft 4 kts 298°
2026-05-04 14:27 38.76930 -9.13531 360 ft 3 kts 259°
2026-05-04 14:27 38.76931 -9.13508 360 ft 4 kts 216°
2026-05-04 14:28 38.76942 -9.13500 358 ft 4 kts 166°
2026-05-04 14:28 38.76968 -9.13509 360 ft 4 kts 165°
2026-05-04 14:28 38.76978 -9.13513 361 ft 0 kts 168°
2026-05-04 14:32 38.76957 -9.13507 360 ft 5 kts 168°
2026-05-04 14:32 38.76901 -9.13492 354 ft 10 kts 168°
2026-05-04 14:32 38.76829 -9.13473 357 ft 11 kts 168°
2026-05-04 14:32 38.76753 -9.13452 355 ft 11 kts 168°
2026-05-04 14:33 38.76679 -9.13446 355 ft 10 kts 196°
2026-05-04 14:33 38.76652 -9.13509 359 ft 8 kts 255°
2026-05-04 14:33 38.76639 -9.13575 358 ft 7 kts 257°
2026-05-04 14:33 38.76629 -9.13637 357 ft 7 kts 258°
2026-05-04 14:34 38.76619 -9.13697 357 ft 7 kts 259°
2026-05-04 14:34 38.76608 -9.13768 354 ft 9 kts 258°
2026-05-04 14:34 38.76594 -9.13854 354 ft 11 kts 258°
2026-05-04 14:34 38.76577 -9.13959 356 ft 12 kts 258°
2026-05-04 14:35 38.76536 -9.14046 362 ft 11 kts 228°
2026-05-04 14:35 38.76499 -9.14111 357 ft 8 kts 244°
2026-05-04 14:35 38.76499 -9.14194 356 ft 11 kts 283°
2026-05-04 14:35 38.76536 -9.14300 351 ft 14 kts 294°
2026-05-04 14:36 38.76569 -9.14397 337 ft 8 kts 293°
2026-05-04 14:36 38.76592 -9.14417 351 ft 2 kts 347°
2026-05-04 14:36 38.76618 -9.14402 350 ft 8 kts 23°
2026-05-04 14:36 38.76832 -9.14286 350 ft 66 kts 22°
2026-05-04 14:37 38.77455 -9.13957 373 ft 125 kts 22°
2026-05-04 14:37 38.78407 -9.13437 395 ft 168 kts 20°
2026-05-04 14:37 38.79476 -9.12828 961 ft 171 kts 20°
2026-05-04 14:37 38.80593 -9.12189 1503 ft 178 kts 19°
2026-05-04 14:38 38.81760 -9.11422 1742 ft 199 kts 22°
2026-05-04 14:38 38.83044 -9.10531 1931 ft 220 kts 24°
2026-05-04 14:38 38.84431 -9.09510 2147 ft 237 kts 25°
2026-05-04 14:38 38.85893 -9.08397 2462 ft 250 kts 26°
2026-05-04 14:39 38.87352 -9.07254 3253 ft 237 kts 26°
2026-05-04 14:39 38.88794 -9.06188 3670 ft 245 kts 19°
2026-05-04 14:39 38.90482 -9.05721 3877 ft 252 kts 356°
2026-05-04 14:40 38.93888 -9.06510 4892 ft 251 kts 347°
2026-05-04 14:40 38.95635 -9.06929 5237 ft 259 kts 348°
2026-05-04 14:40 38.97363 -9.07600 5584 ft 264 kts 329°
2026-05-04 14:40 38.98674 -9.09172 6209 ft 257 kts 302°
2026-05-04 14:41 38.99316 -9.11294 6811 ft 258 kts 286°
2026-05-04 14:41 38.99695 -9.13582 7158 ft 266 kts 282°
2026-05-04 14:41 39.00437 -9.18255 8120 ft 270 kts 283°
2026-05-04 14:42 39.01324 -9.22957 9186 ft 272 kts 285°
2026-05-04 14:42 39.01787 -9.25292 9888 ft 267 kts 285°
2026-05-04 14:42 39.02259 -9.27643 10219 ft 276 kts 285°
2026-05-04 14:43 39.02747 -9.30089 10383 ft 290 kts 285°
2026-05-04 14:43 39.03262 -9.32664 10507 ft 305 kts 285°
2026-05-04 14:43 39.03799 -9.35366 10654 ft 318 kts 285°
2026-05-04 14:43 39.04344 -9.38128 11186 ft 317 kts 285°
2026-05-04 14:44 39.04892 -9.40902 11576 ft 322 kts 284°
2026-05-04 14:44 39.05443 -9.43700 12069 ft 323 kts 284°
2026-05-04 14:44 39.05996 -9.46512 12538 ft 325 kts 284°
2026-05-04 14:44 39.06548 -9.49329 13044 ft 325 kts 284°
2026-05-04 14:45 39.07102 -9.52157 13522 ft 327 kts 284°
2026-05-04 14:45 39.07658 -9.55001 13984 ft 329 kts 284°
2026-05-04 14:45 39.08217 -9.57858 14405 ft 330 kts 284°
2026-05-04 14:45 39.08770 -9.60691 14831 ft 331 kts 284°
2026-05-04 14:46 39.09330 -9.63568 15247 ft 333 kts 284°
2026-05-04 14:46 39.09901 -9.66502 15654 ft 334 kts 284°
2026-05-04 14:46 39.10466 -9.69408 16069 ft 336 kts 284°
2026-05-04 14:46 39.11032 -9.72330 16487 ft 337 kts 284°
2026-05-04 14:47 39.11601 -9.75263 16901 ft 338 kts 284°
2026-05-04 14:47 39.12163 -9.78170 17312 ft 340 kts 284°
2026-05-04 14:47 39.12734 -9.81130 17705 ft 342 kts 284°
2026-05-04 14:47 39.13308 -9.84109 18103 ft 343 kts 284°
2026-05-04 14:48 39.13882 -9.87094 18511 ft 344 kts 284°
2026-05-04 14:48 39.14459 -9.90095 18873 ft 345 kts 283°
2026-05-04 14:48 39.15036 -9.93102 19247 ft 346 kts 283°
2026-05-04 14:48 39.15613 -9.96118 19636 ft 347 kts 283°
2026-05-04 14:49 39.16191 -9.99142 20013 ft 348 kts 283°
2026-05-04 14:49 39.16575 -10.01149 20263 ft 349 kts 283°
2026-05-04 14:49 39.17156 -10.04195 20629 ft 350 kts 283°
2026-05-04 14:49 39.17737 -10.07247 20992 ft 352 kts 283°
2026-05-04 14:50 39.18319 -10.10311 21371 ft 353 kts 283°
2026-05-04 14:50 39.18904 -10.13389 21755 ft 354 kts 283°
2026-05-04 14:50 39.19489 -10.16476 22131 ft 355 kts 283°
2026-05-04 14:50 39.20076 -10.19577 22498 ft 357 kts 283°
2026-05-04 14:51 39.20664 -10.22693 22891 ft 358 kts 283°
2026-05-04 14:51 39.21252 -10.25812 23273 ft 359 kts 283°
2026-05-04 14:51 39.21843 -10.28945 23625 ft 361 kts 283°
2026-05-04 14:51 39.22434 -10.32091 23961 ft 362 kts 283°
2026-05-04 14:52 39.23028 -10.35255 24286 ft 363 kts 283°
2026-05-04 14:52 39.23622 -10.38422 24597 ft 364 kts 283°
2026-05-04 14:52 39.24217 -10.41604 24908 ft 366 kts 283°
2026-05-04 14:52 39.24814 -10.44802 25221 ft 367 kts 283°
2026-05-04 14:53 39.25412 -10.48008 25518 ft 368 kts 283°
2026-05-04 14:53 39.26012 -10.51227 25823 ft 370 kts 283°
2026-05-04 14:53 39.26612 -10.54460 26123 ft 371 kts 283°
2026-05-04 14:53 39.27215 -10.57708 26423 ft 373 kts 283°
2026-05-04 14:54 39.27817 -10.60961 26742 ft 373 kts 283°
2026-05-04 14:54 39.28420 -10.64223 27035 ft 375 kts 283°
2026-05-04 14:54 39.29026 -10.67499 27321 ft 376 kts 283°
2026-05-04 14:54 39.29633 -10.70794 27606 ft 377 kts 283°
2026-05-04 14:55 39.30240 -10.74093 27889 ft 379 kts 283°
2026-05-04 14:55 39.30850 -10.77413 28191 ft 380 kts 283°
2026-05-04 14:55 39.31460 -10.80736 28476 ft 381 kts 283°
2026-05-04 14:55 39.32071 -10.84073 28739 ft 383 kts 283°
2026-05-04 14:56 39.32683 -10.87423 29004 ft 384 kts 283°
2026-05-04 14:56 39.33297 -10.90791 29253 ft 386 kts 283°
2026-05-04 14:56 39.33911 -10.94164 29514 ft 387 kts 283°
2026-05-04 14:56 39.34525 -10.97546 29852 ft 386 kts 283°
2026-05-04 14:57 39.35139 -11.00930 30072 ft 388 kts 283°
2026-05-04 14:57 39.35760 -11.04355 30128 ft 394 kts 283°
2026-05-04 14:57 39.37026 -11.11360 30132 ft 404 kts 283°
2026-05-04 14:58 39.38295 -11.18414 30129 ft 402 kts 283°
2026-05-04 14:58 39.39560 -11.25471 30130 ft 403 kts 283°
2026-05-04 14:59 39.40821 -11.32529 30104 ft 402 kts 283°
2026-05-04 15:00 39.42696 -11.43077 30134 ft 401 kts 283°
2026-05-04 15:00 39.43941 -11.50106 30135 ft 401 kts 283°
2026-05-04 15:01 39.45799 -11.60660 30136 ft 401 kts 283°
2026-05-04 15:01 39.47032 -11.67698 30137 ft 401 kts 283°
2026-05-04 15:02 39.48262 -11.74742 30134 ft 401 kts 283°
2026-05-04 15:02 39.49487 -11.81781 30141 ft 401 kts 283°
2026-05-04 15:03 39.50708 -11.88827 30140 ft 401 kts 283°
2026-05-04 15:03 39.51925 -11.95877 30140 ft 401 kts 283°
2026-05-04 15:04 39.53137 -12.02925 30143 ft 401 kts 283°
2026-05-04 15:04 39.54326 -12.09959 30146 ft 399 kts 283°
2026-05-04 15:05 39.55519 -12.16991 30147 ft 400 kts 283°
2026-05-04 15:05 39.56726 -12.24022 30140 ft 400 kts 283°
2026-05-04 15:06 39.57930 -12.31051 30139 ft 399 kts 283°
2026-05-04 15:07 39.59711 -12.41606 30138 ft 399 kts 283°
2026-05-04 15:07 39.60886 -12.48620 30151 ft 399 kts 283°
2026-05-04 15:08 39.62061 -12.55651 30149 ft 399 kts 283°
2026-05-04 15:08 39.63230 -12.62678 30155 ft 398 kts 283°
2026-05-04 15:09 39.64394 -12.69704 30156 ft 398 kts 283°
2026-05-04 15:09 39.65555 -12.76738 30154 ft 399 kts 283°
2026-05-04 15:10 39.67280 -12.87240 30152 ft 398 kts 283°
2026-05-04 15:11 39.69003 -12.97795 30159 ft 398 kts 283°
2026-05-04 15:11 39.70146 -13.04835 30157 ft 399 kts 283°
2026-05-04 15:12 39.71286 -13.11884 30162 ft 398 kts 283°
2026-05-04 15:12 39.72423 -13.18944 30195 ft 400 kts 283°
2026-05-04 15:13 39.73550 -13.25981 30160 ft 398 kts 283°
2026-05-04 15:13 39.74675 -13.33023 30159 ft 398 kts 283°
2026-05-04 15:14 39.75796 -13.40068 30165 ft 398 kts 283°
2026-05-04 15:14 39.76913 -13.47116 30165 ft 398 kts 283°
2026-05-04 15:15 39.78027 -13.54177 30162 ft 401 kts 283°
2026-05-04 15:15 39.79140 -13.61259 30169 ft 399 kts 283°
2026-05-04 15:16 39.80801 -13.71886 30170 ft 400 kts 283°
2026-05-04 15:17 39.82452 -13.82515 30170 ft 400 kts 282°
2026-05-04 15:17 39.84101 -13.93195 30168 ft 403 kts 282°
2026-05-04 15:18 39.85196 -14.00331 30177 ft 402 kts 282°
2026-05-04 15:19 39.86830 -14.11036 30186 ft 402 kts 282°
2026-05-04 15:19 39.88449 -14.21708 30147 ft 402 kts 282°
2026-05-04 15:20 39.89543 -14.28956 30175 ft 406 kts 282°
2026-05-04 15:20 39.90624 -14.36157 30182 ft 405 kts 282°
2026-05-04 15:21 39.91701 -14.43362 30183 ft 405 kts 282°
2026-05-04 15:22 39.93303 -14.54128 30184 ft 405 kts 282°
2026-05-04 15:22 39.94911 -14.65009 30173 ft 410 kts 282°
2026-05-04 15:23 39.95980 -14.72292 30176 ft 409 kts 282°
2026-05-04 15:23 39.97041 -14.79552 30192 ft 405 kts 282°
2026-05-04 15:24 39.99151 -14.94017 30174 ft 406 kts 282°
2026-05-04 15:25 40.00214 -15.01315 30180 ft 410 kts 283°
2026-05-04 15:26 40.02613 -15.11999 30178 ft 409 kts 288°
2026-05-04 15:26 40.05068 -15.22669 30208 ft 409 kts 287°
2026-05-04 15:27 40.07450 -15.33374 30203 ft 409 kts 287°
2026-05-04 15:28 40.09814 -15.44087 30196 ft 408 kts 287°
2026-05-04 15:29 40.12152 -15.54722 30200 ft 407 kts 287°
2026-05-04 15:30 40.17603 -15.79722 30219 ft 410 kts 286°
2026-05-04 15:31 40.19933 -15.90498 30210 ft 411 kts 286°
2026-05-04 15:32 40.23544 -16.07309 30198 ft 412 kts 286°
2026-05-04 15:34 40.27394 -16.25377 30218 ft 412 kts 286°
2026-05-04 15:34 40.29692 -16.36233 30211 ft 413 kts 286°
2026-05-04 15:35 40.32000 -16.47189 30215 ft 415 kts 286°
2026-05-04 15:36 40.34295 -16.58143 30218 ft 416 kts 286°
2026-05-04 15:36 40.35816 -16.65444 30220 ft 414 kts 286°
2026-05-04 15:37 40.37331 -16.72729 30222 ft 416 kts 286°
2026-05-04 15:37 40.38857 -16.80090 30219 ft 417 kts 286°
2026-05-04 15:38 40.40372 -16.87431 30226 ft 417 kts 286°
2026-05-04 15:38 40.41885 -16.94787 30231 ft 417 kts 286°
2026-05-04 15:39 40.43391 -17.02136 30224 ft 417 kts 286°
2026-05-04 15:40 40.45647 -17.13186 30234 ft 421 kts 285°
2026-05-04 15:40 40.47153 -17.20604 30232 ft 421 kts 285°
2026-05-04 15:41 40.48653 -17.28018 30233 ft 419 kts 286°
2026-05-04 15:41 40.50147 -17.35423 30238 ft 420 kts 285°
2026-05-04 15:42 40.51639 -17.42843 30235 ft 422 kts 285°
2026-05-04 15:42 40.53137 -17.50323 30237 ft 422 kts 285°
2026-05-04 15:43 40.54627 -17.57793 30236 ft 423 kts 285°
2026-05-04 15:43 40.56113 -17.65271 30240 ft 422 kts 285°
2026-05-04 15:44 40.57593 -17.72746 30244 ft 423 kts 285°
2026-05-04 15:44 40.59076 -17.80259 30246 ft 427 kts 285°
2026-05-04 15:45 40.60553 -17.87780 30244 ft 423 kts 285°
2026-05-04 15:45 40.62026 -17.95298 30248 ft 424 kts 285°
2026-05-04 15:46 40.63494 -18.02822 30249 ft 424 kts 285°
2026-05-04 15:46 40.64956 -18.10340 30231 ft 425 kts 285°
2026-05-04 15:47 40.66426 -18.17932 30257 ft 428 kts 285°
2026-05-04 15:47 40.67887 -18.25512 30248 ft 427 kts 285°
2026-05-04 15:48 40.69336 -18.33054 30254 ft 427 kts 285°
2026-05-04 15:48 40.71510 -18.44425 30244 ft 426 kts 285°
2026-05-04 15:49 40.72960 -18.52039 30255 ft 429 kts 284°
2026-05-04 15:49 40.74403 -18.59651 30258 ft 428 kts 284°
2026-05-04 15:50 40.75842 -18.67275 30257 ft 428 kts 284°
2026-05-04 15:50 40.77276 -18.74896 30253 ft 428 kts 284°
2026-05-04 15:51 40.78705 -18.82523 30256 ft 428 kts 284°
2026-05-04 15:51 40.80129 -18.90157 30258 ft 428 kts 284°
2026-05-04 15:52 40.81547 -18.97785 30266 ft 428 kts 284°
2026-05-04 15:52 40.82959 -19.05416 30265 ft 427 kts 284°
2026-05-04 15:53 40.84366 -19.13041 30248 ft 428 kts 284°
2026-05-04 15:53 40.85777 -19.20720 30272 ft 430 kts 284°
2026-05-04 15:54 40.87179 -19.28389 30261 ft 430 kts 284°
2026-05-04 15:54 40.88579 -19.36073 30261 ft 430 kts 284°
2026-05-04 15:55 40.89972 -19.43750 30266 ft 430 kts 284°
2026-05-04 15:55 40.91365 -19.51462 30270 ft 433 kts 284°
2026-05-04 15:56 40.92756 -19.59195 30269 ft 431 kts 284°
2026-05-04 15:56 40.94137 -19.66901 30275 ft 431 kts 284°
2026-05-04 15:57 40.95516 -19.74626 30270 ft 431 kts 284°
2026-05-04 15:57 40.96891 -19.82350 30281 ft 433 kts 284°
2026-05-04 15:58 40.98272 -19.90133 30280 ft 433 kts 284°
2026-05-04 15:58 40.99646 -19.97897 30275 ft 434 kts 284°
2026-05-04 15:59 41.01067 -20.05656 30284 ft 433 kts 285°
2026-05-04 15:59 41.02596 -20.13373 30287 ft 433 kts 285°
2026-05-04 16:00 41.04132 -20.21134 30281 ft 436 kts 285°
2026-05-04 16:00 41.05656 -20.28902 30266 ft 435 kts 285°
2026-05-04 16:01 41.07162 -20.36621 30274 ft 436 kts 284°
2026-05-04 16:01 41.08684 -20.44449 30288 ft 436 kts 284°
2026-05-04 16:02 41.10185 -20.52203 30282 ft 440 kts 284°
2026-05-04 16:03 41.12444 -20.63959 30284 ft 438 kts 284°
2026-05-04 16:03 41.13936 -20.71775 30276 ft 436 kts 284°
2026-05-04 16:04 41.15422 -20.79584 30276 ft 437 kts 284°
2026-05-04 16:04 41.17649 -20.91346 30288 ft 438 kts 284°
2026-05-04 16:05 41.19128 -20.99201 30287 ft 439 kts 284°
2026-05-04 16:06 41.21336 -21.10988 30292 ft 438 kts 284°
2026-05-04 16:07 41.24268 -21.26752 30293 ft 438 kts 284°
2026-05-04 16:08 41.27177 -21.42514 30291 ft 439 kts 284°
2026-05-04 16:09 41.30791 -21.62291 30295 ft 441 kts 284°
2026-05-04 16:10 41.33659 -21.78135 30301 ft 439 kts 284°
2026-05-04 16:11 41.36502 -21.93968 30301 ft 441 kts 284°
2026-05-04 16:12 41.40741 -22.17834 30304 ft 442 kts 283°
2026-05-04 16:13 41.43536 -22.33746 30306 ft 440 kts 283°
2026-05-04 16:14 41.46309 -22.49664 30305 ft 443 kts 283°
2026-05-04 16:16 41.49754 -22.69647 30307 ft 442 kts 283°
2026-05-04 16:17 41.53168 -22.89666 30314 ft 443 kts 283°
2026-05-04 16:18 41.55647 -23.04343 30319 ft 443 kts 283°
2026-05-04 16:19 41.59008 -23.24442 30320 ft 444 kts 283°
2026-05-04 16:20 41.62333 -23.44560 30315 ft 444 kts 283°
2026-05-04 16:22 41.65627 -23.64720 30326 ft 444 kts 283°
2026-05-04 16:23 41.69537 -23.88971 30326 ft 444 kts 282°
2026-05-04 16:25 41.73400 -24.13265 30335 ft 447 kts 282°
2026-05-04 16:26 41.77850 -24.41702 30335 ft 446 kts 282°
2026-05-04 16:28 41.80993 -24.62086 30332 ft 447 kts 282°
2026-05-04 16:29 41.85332 -24.90651 30344 ft 447 kts 281°
2026-05-04 16:31 41.88380 -25.11026 30343 ft 447 kts 281°
2026-05-04 16:32 41.92004 -25.35601 30350 ft 447 kts 281°
2026-05-04 16:33 41.94393 -25.52008 30355 ft 448 kts 281°
2026-05-04 16:34 41.96168 -25.64315 30350 ft 447 kts 281°
2026-05-04 16:35 41.99686 -25.89008 30358 ft 448 kts 281°
2026-05-04 16:36 42.01418 -26.01301 30355 ft 449 kts 281°
2026-05-04 16:37 42.03147 -26.13687 30360 ft 449 kts 281°
2026-05-04 16:38 42.05430 -26.30198 30367 ft 449 kts 280°
2026-05-04 16:39 42.08262 -26.50926 30364 ft 450 kts 280°
2026-05-04 16:40 42.10488 -26.67440 30371 ft 450 kts 280°
2026-05-04 16:41 42.13247 -26.88170 30370 ft 451 kts 280°
2026-05-04 16:43 42.15970 -27.08919 30375 ft 450 kts 280°
2026-05-04 16:43 42.17588 -27.21395 30376 ft 450 kts 280°
2026-05-04 16:45 42.20782 -27.46365 30374 ft 451 kts 280°
2026-05-04 16:46 42.23408 -27.67224 30393 ft 451 kts 280°
2026-05-04 16:47 42.25479 -27.83913 30382 ft 451 kts 280°
2026-05-04 16:48 42.27531 -28.00648 30389 ft 453 kts 280°
2026-05-04 16:49 42.29564 -28.17447 30376 ft 453 kts 280°
2026-05-04 16:50 42.31569 -28.34225 30388 ft 451 kts 280°
2026-05-04 16:51 42.33061 -28.46847 30390 ft 453 kts 280°
2026-05-04 16:52 42.35029 -28.63685 30393 ft 454 kts 280°
2026-05-04 16:53 42.36485 -28.76301 30394 ft 451 kts 281°
2026-05-04 16:54 42.38403 -28.93100 30397 ft 453 kts 280°
2026-05-04 16:55 42.41236 -29.18350 30390 ft 451 kts 280°
2026-05-04 16:56 42.43546 -29.39322 30401 ft 452 kts 280°
2026-05-04 16:57 42.44918 -29.51950 30400 ft 452 kts 280°
2026-05-04 16:58 42.46733 -29.68789 30403 ft 452 kts 280°
2026-05-04 17:00 42.49409 -29.94013 30407 ft 452 kts 280°
2026-05-04 17:01 42.52793 -30.14677 30409 ft 448 kts 288°
2026-05-04 17:02 42.56079 -30.30985 30402 ft 448 kts 287°
2026-05-04 17:03 42.58471 -30.43256 30405 ft 448 kts 287°
2026-05-04 17:03 42.60851 -30.55535 30413 ft 448 kts 287°
2026-05-04 17:04 42.63724 -30.70500 30412 ft 447 kts 286°
2026-05-04 17:05 42.66836 -30.86854 30412 ft 447 kts 286°
2026-05-04 17:06 42.69153 -30.99125 30412 ft 447 kts 286°
2026-05-04 17:07 42.71200 -31.10027 30411 ft 447 kts 286°
2026-05-04 17:07 42.72990 -31.19611 30412 ft 447 kts 285°
2026-05-04 17:08 42.75273 -31.31911 30411 ft 447 kts 285°
2026-05-04 17:09 42.76788 -31.40114 30411 ft 447 kts 285°
2026-05-04 17:09 42.78297 -31.48323 30411 ft 447 kts 285°
2026-05-04 17:10 42.82048 -31.68878 30404 ft 447 kts 285°
2026-05-04 17:11 42.83537 -31.77107 30412 ft 447 kts 285°
2026-05-04 17:12 42.85761 -31.89460 30406 ft 447 kts 285°
2026-05-04 17:13 42.89422 -32.09989 30404 ft 446 kts 285°
2026-05-04 17:14 42.92324 -32.26428 30399 ft 443 kts 286°
2026-05-04 17:15 42.94477 -32.38711 30417 ft 444 kts 286°
2026-05-04 17:16 42.97305 -32.55031 30399 ft 441 kts 288°
2026-05-04 17:17 43.00119 -32.71335 30408 ft 441 kts 288°
2026-05-04 17:18 43.02886 -32.87595 30389 ft 438 kts 290°
2026-05-04 17:19 43.05631 -33.03813 30397 ft 438 kts 290°
2026-05-04 17:20 43.08353 -33.20054 30398 ft 438 kts 290°
2026-05-04 17:20 43.10377 -33.32238 30388 ft 436 kts 290°
2026-05-04 17:21 43.13045 -33.48415 30396 ft 436 kts 290°
2026-05-04 17:22 43.14370 -33.56513 30391 ft 436 kts 290°
2026-05-04 17:23 43.17008 -33.72730 30370 ft 436 kts 290°
2026-05-04 17:24 43.18968 -33.84870 30360 ft 435 kts 289°
2026-05-04 17:25 43.21553 -34.01034 30386 ft 434 kts 289°
2026-05-04 17:26 43.24117 -34.17222 30374 ft 434 kts 289°
2026-05-04 17:27 43.27281 -34.37427 30382 ft 434 kts 288°
2026-05-04 17:28 43.29781 -34.53562 30380 ft 432 kts 288°
2026-05-04 17:29 43.33483 -34.77780 30379 ft 432 kts 288°
2026-05-04 17:31 43.36530 -34.97986 30376 ft 432 kts 288°
2026-05-04 17:32 43.39531 -35.18136 30367 ft 431 kts 287°
2026-05-04 17:33 43.41911 -35.34305 30366 ft 432 kts 287°
2026-05-04 17:34 43.44270 -35.50501 30369 ft 432 kts 286°
2026-05-04 17:35 43.47202 -35.70873 30363 ft 434 kts 286°
2026-05-04 17:36 43.48366 -35.79036 30358 ft 434 kts 286°
2026-05-04 17:36 43.49525 -35.87203 30358 ft 434 kts 286°
2026-05-04 17:37 43.50678 -35.95375 30353 ft 437 kts 286°
2026-05-04 17:37 43.51833 -36.03608 30352 ft 437 kts 285°
2026-05-04 17:38 43.52981 -36.11839 30348 ft 441 kts 285°
2026-05-04 17:38 43.54135 -36.20156 30347 ft 440 kts 285°
2026-05-04 17:39 43.55850 -36.32610 30339 ft 441 kts 285°
2026-05-04 17:39 43.56990 -36.40929 30339 ft 444 kts 285°
2026-05-04 17:40 43.58128 -36.49305 30342 ft 443 kts 285°
2026-05-04 17:40 43.59258 -36.57666 30345 ft 444 kts 285°
2026-05-04 17:41 43.60385 -36.66043 30346 ft 445 kts 285°
2026-05-04 17:41 43.61512 -36.74467 30342 ft 446 kts 284°
2026-05-04 17:42 43.62629 -36.82876 30328 ft 445 kts 284°
2026-05-04 17:42 43.63737 -36.91265 30333 ft 444 kts 284°
2026-05-04 17:43 43.64839 -36.99664 30333 ft 444 kts 284°
2026-05-04 17:43 43.65929 -37.08010 30333 ft 444 kts 284°
2026-05-04 17:44 43.67019 -37.16411 30331 ft 445 kts 284°
2026-05-04 17:44 43.68105 -37.24818 30327 ft 443 kts 283°
2026-05-04 17:45 43.69181 -37.33201 30322 ft 444 kts 283°
2026-05-04 17:45 43.70250 -37.41593 30319 ft 444 kts 283°
2026-05-04 17:46 43.71313 -37.49991 30320 ft 443 kts 283°
2026-05-04 17:46 43.72370 -37.58385 30317 ft 443 kts 283°
2026-05-04 17:47 43.73421 -37.66786 30317 ft 443 kts 283°
2026-05-04 17:47 43.74466 -37.75182 30311 ft 443 kts 282°
2026-05-04 17:48 43.75331 -37.82171 30307 ft 444 kts 281°
2026-05-04 17:48 43.76365 -37.90589 30306 ft 444 kts 281°
2026-05-04 17:49 43.77392 -37.99001 30306 ft 444 kts 281°
2026-05-04 17:49 43.78414 -38.07423 30311 ft 444 kts 281°
2026-05-04 17:50 43.79430 -38.15845 30300 ft 444 kts 281°
2026-05-04 17:50 43.80436 -38.24216 30298 ft 439 kts 280°
2026-05-04 17:51 43.81428 -38.32568 30292 ft 440 kts 280°
2026-05-04 17:51 43.82413 -38.40895 30292 ft 436 kts 280°
2026-05-04 17:52 43.83387 -38.49192 30287 ft 437 kts 279°
2026-05-04 17:52 43.84357 -38.57502 30290 ft 437 kts 279°
2026-05-04 17:53 43.85321 -38.65806 30279 ft 437 kts 279°
2026-05-04 17:53 43.86277 -38.74112 30276 ft 437 kts 279°
2026-05-04 17:54 43.87229 -38.82429 30273 ft 437 kts 279°
2026-05-04 17:54 43.88174 -38.90741 30273 ft 437 kts 279°
2026-05-04 17:55 43.89113 -38.99049 30264 ft 436 kts 279°
2026-05-04 17:55 43.90044 -39.07357 30262 ft 436 kts 279°
2026-05-04 17:56 43.90970 -39.15663 30265 ft 436 kts 279°
2026-05-04 17:56 43.91890 -39.23981 30260 ft 436 kts 279°
2026-05-04 17:57 43.92804 -39.32292 30257 ft 436 kts 279°
2026-05-04 17:57 43.93712 -39.40610 30252 ft 436 kts 278°
2026-05-04 17:58 43.94614 -39.48934 30254 ft 436 kts 278°
2026-05-04 17:58 43.95508 -39.57234 30254 ft 433 kts 278°
2026-05-04 17:59 43.96398 -39.65509 30246 ft 434 kts 278°
2026-05-04 18:00 43.97718 -39.77890 30243 ft 434 kts 278°
2026-05-04 18:00 43.98594 -39.86173 30244 ft 434 kts 278°
2026-05-04 18:01 43.99450 -39.94464 30237 ft 434 kts 277°
2026-05-04 18:01 43.99770 -40.02836 30234 ft 434 kts 270°
2026-05-04 18:02 43.99108 -40.15347 30231 ft 432 kts 266°
2026-05-04 18:02 43.98642 -40.23674 30230 ft 433 kts 266°
2026-05-04 18:03 43.98173 -40.32011 30233 ft 433 kts 266°
2026-05-04 18:03 43.97694 -40.40340 30224 ft 433 kts 266°
2026-05-04 18:04 43.97208 -40.48672 30225 ft 433 kts 266°
2026-05-04 18:05 43.96466 -40.61156 30221 ft 433 kts 266°
2026-05-04 18:05 43.95960 -40.69480 30217 ft 432 kts 265°
2026-05-04 18:06 43.95188 -40.81953 30211 ft 433 kts 265°
2026-05-04 18:06 43.94667 -40.90265 30211 ft 433 kts 265°
2026-05-04 18:07 43.94139 -40.98579 30206 ft 432 kts 265°
2026-05-04 18:07 43.93605 -41.06888 30206 ft 432 kts 265°
2026-05-04 18:08 43.93064 -41.15226 30567 ft 434 kts 265°
2026-05-04 18:08 43.92790 -41.19400 30822 ft 435 kts 264°
2026-05-04 18:08 43.92514 -41.23588 31053 ft 437 kts 264°
2026-05-04 18:09 43.91955 -41.32008 31469 ft 439 kts 264°
2026-05-04 18:09 43.91390 -41.40435 31865 ft 440 kts 264°
2026-05-04 18:10 43.91104 -41.44660 32034 ft 440 kts 264°
2026-05-04 18:10 43.90816 -41.48885 32143 ft 441 kts 264°
2026-05-04 18:10 43.90234 -41.57338 32184 ft 440 kts 263°
2026-05-04 18:11 43.89647 -41.65786 32181 ft 440 kts 263°
2026-05-04 18:11 43.89055 -41.74228 32176 ft 440 kts 263°
2026-05-04 18:12 43.88456 -41.82671 32168 ft 440 kts 263°
2026-05-04 18:12 43.87853 -41.91083 32165 ft 438 kts 263°
2026-05-04 18:13 43.87247 -41.99465 32161 ft 437 kts 263°
2026-05-04 18:14 43.86327 -42.11998 32151 ft 435 kts 263°
2026-05-04 18:14 43.85707 -42.20334 32132 ft 435 kts 263°
2026-05-04 18:15 43.84451 -42.36997 32141 ft 435 kts 262°
2026-05-04 18:16 43.83814 -42.45324 32135 ft 435 kts 262°
2026-05-04 18:16 43.83170 -42.53653 32124 ft 435 kts 262°
2026-05-04 18:17 43.82193 -42.66154 32134 ft 435 kts 262°
2026-05-04 18:18 43.81204 -42.78628 32120 ft 434 kts 262°
2026-05-04 18:18 43.80537 -42.86929 32129 ft 433 kts 262°
2026-05-04 18:19 43.79533 -42.99304 32117 ft 433 kts 262°
2026-05-04 18:19 43.78853 -43.07582 32117 ft 433 kts 262°
2026-05-04 18:20 43.78168 -43.15860 32132 ft 432 kts 261°
2026-05-04 18:20 43.77478 -43.24110 32116 ft 431 kts 261°
2026-05-04 18:21 43.76784 -43.32348 32118 ft 430 kts 261°
2026-05-04 18:21 43.76086 -43.40553 32106 ft 429 kts 261°
2026-05-04 18:22 43.75383 -43.48747 32104 ft 429 kts 261°
2026-05-04 18:22 43.74676 -43.56923 32090 ft 428 kts 261°
2026-05-04 18:23 43.73965 -43.65070 32100 ft 426 kts 261°
2026-05-04 18:23 43.73251 -43.73193 32095 ft 425 kts 261°
2026-05-04 18:24 43.72532 -43.81293 32077 ft 424 kts 261°
2026-05-04 18:24 43.71808 -43.89392 32075 ft 424 kts 261°
2026-05-04 18:25 43.71080 -43.97479 32077 ft 424 kts 260°
2026-05-04 18:25 43.70345 -44.05557 32083 ft 423 kts 260°
2026-05-04 18:26 43.69608 -44.13606 32069 ft 422 kts 260°
2026-05-04 18:26 43.68865 -44.21642 32064 ft 421 kts 260°
2026-05-04 18:27 43.68120 -44.29658 32059 ft 421 kts 260°
2026-05-04 18:27 43.67367 -44.37679 32053 ft 421 kts 260°
2026-05-04 18:28 43.66609 -44.45699 32059 ft 421 kts 260°
2026-05-04 18:28 43.65858 -44.53601 32052 ft 417 kts 260°
2026-05-04 18:29 43.65092 -44.61587 32050 ft 414 kts 259°
2026-05-04 18:29 43.64329 -44.69472 32043 ft 415 kts 259°
2026-05-04 18:30 43.63179 -44.81265 32042 ft 415 kts 259°
2026-05-04 18:31 43.62402 -44.89161 32037 ft 415 kts 259°
2026-05-04 18:31 43.61618 -44.97062 32031 ft 415 kts 259°
2026-05-04 18:32 43.60959 -45.03668 32029 ft 415 kts 259°
2026-05-04 18:32 43.60168 -45.11544 32017 ft 414 kts 259°
2026-05-04 18:33 43.59372 -45.19409 32013 ft 414 kts 259°
2026-05-04 18:33 43.58567 -45.27296 32033 ft 417 kts 259°
2026-05-04 18:34 43.57765 -45.35142 32017 ft 408 kts 259°
2026-05-04 18:34 43.56960 -45.42925 32017 ft 411 kts 259°
2026-05-04 18:35 43.56150 -45.50718 32018 ft 410 kts 259°
2026-05-04 18:35 43.55335 -45.58499 32017 ft 410 kts 259°
2026-05-04 18:36 43.54515 -45.66278 32017 ft 410 kts 259°
2026-05-04 18:36 43.53689 -45.74053 32020 ft 408 kts 259°
2026-05-04 18:37 43.52869 -45.81735 32026 ft 406 kts 259°
2026-05-04 18:37 43.52046 -45.89406 32015 ft 403 kts 258°
2026-05-04 18:38 43.51224 -45.96990 32019 ft 403 kts 258°
2026-05-04 18:38 43.50390 -46.04637 32021 ft 403 kts 258°
2026-05-04 18:39 43.49554 -46.12266 32013 ft 403 kts 258°
2026-05-04 18:39 43.48718 -46.19850 32019 ft 398 kts 258°
2026-05-04 18:40 43.47881 -46.27392 32021 ft 399 kts 258°
2026-05-04 18:40 43.47038 -46.34940 32025 ft 399 kts 258°
2026-05-04 18:41 43.46190 -46.42485 32028 ft 399 kts 258°
2026-05-04 18:41 43.45338 -46.50024 32064 ft 399 kts 258°
2026-05-04 18:42 43.44479 -46.57570 32047 ft 398 kts 258°
2026-05-04 18:42 43.43629 -46.65010 32033 ft 393 kts 258°
2026-05-04 18:43 43.42771 -46.72452 32022 ft 394 kts 258°
2026-05-04 18:43 43.41910 -46.79887 32020 ft 394 kts 258°
2026-05-04 18:44 43.41045 -46.87317 32032 ft 393 kts 258°
2026-05-04 18:44 43.40175 -46.94741 32038 ft 393 kts 258°
2026-05-04 18:45 43.39308 -47.02096 32035 ft 390 kts 258°
2026-05-04 18:45 43.38432 -47.09487 32028 ft 390 kts 258°
2026-05-04 18:46 43.37564 -47.16784 32045 ft 387 kts 257°
2026-05-04 18:46 43.36686 -47.24107 32036 ft 389 kts 257°
2026-05-04 18:47 43.35803 -47.31427 32042 ft 388 kts 257°
2026-05-04 18:47 43.34917 -47.38738 32039 ft 388 kts 257°
2026-05-04 18:48 43.34030 -47.46017 32040 ft 382 kts 257°
2026-05-04 18:48 43.33147 -47.53222 32045 ft 383 kts 257°
2026-05-04 18:49 43.32257 -47.60436 32047 ft 383 kts 257°
2026-05-04 18:49 43.31364 -47.67648 32045 ft 383 kts 257°
2026-05-04 18:50 43.30467 -47.74850 32047 ft 383 kts 257°
2026-05-04 18:50 43.29569 -47.82030 32044 ft 380 kts 257°
2026-05-04 18:51 43.28673 -47.89151 32041 ft 376 kts 257°
2026-05-04 18:51 43.27776 -47.96237 32039 ft 377 kts 257°
2026-05-04 18:52 43.26874 -48.03329 32045 ft 377 kts 257°
2026-05-04 18:52 43.25968 -48.10417 32045 ft 377 kts 257°
2026-05-04 18:53 43.25057 -48.17506 32046 ft 377 kts 257°
2026-05-04 18:53 43.24142 -48.24586 32045 ft 377 kts 257°
2026-05-04 18:54 43.23225 -48.31644 32056 ft 375 kts 257°
2026-05-04 18:54 43.22308 -48.38676 32110 ft 374 kts 257°
2026-05-04 18:55 43.21394 -48.45656 32059 ft 374 kts 256°
2026-05-04 18:55 43.20008 -48.56157 32051 ft 373 kts 256°
2026-05-04 18:56 43.19080 -48.63147 32049 ft 372 kts 256°
2026-05-04 18:56 43.18149 -48.70126 32069 ft 371 kts 256°
2026-05-04 18:57 43.17219 -48.77068 32052 ft 370 kts 256°
2026-05-04 18:57 43.16286 -48.83998 32049 ft 370 kts 256°
2026-05-04 18:58 43.15351 -48.90911 32046 ft 369 kts 256°
2026-05-04 18:58 43.14411 -48.97820 32038 ft 369 kts 256°
2026-05-04 18:59 43.13469 -49.04729 32069 ft 369 kts 256°
2026-05-04 18:59 43.12523 -49.11619 32054 ft 368 kts 256°
2026-05-04 19:00 43.11575 -49.18491 32053 ft 367 kts 256°
2026-05-04 19:00 43.10623 -49.25360 32050 ft 367 kts 256°
2026-05-04 19:01 43.09667 -49.32228 32048 ft 367 kts 256°
2026-05-04 19:01 43.08708 -49.39090 32051 ft 367 kts 256°
2026-05-04 19:02 43.07746 -49.45946 32046 ft 367 kts 256°
2026-05-04 19:02 43.06780 -49.52790 32053 ft 364 kts 256°
2026-05-04 19:03 43.05818 -49.59587 32057 ft 364 kts 256°
2026-05-04 19:03 43.04857 -49.66374 32059 ft 362 kts 256°
2026-05-04 19:04 43.03901 -49.73082 32053 ft 363 kts 256°
2026-05-04 19:04 43.02935 -49.79839 32055 ft 362 kts 256°
2026-05-04 19:05 43.01964 -49.86593 32053 ft 362 kts 256°
2026-05-04 19:05 43.00992 -49.93329 32052 ft 360 kts 256°
2026-05-04 19:06 43.00003 -50.00010 32058 ft 359 kts 255°
2026-05-04 19:06 42.98811 -50.06618 32056 ft 358 kts 254°
2026-05-04 19:07 42.97645 -50.13237 32049 ft 359 kts 254°
2026-05-04 19:07 42.96488 -50.19861 32050 ft 358 kts 254°
2026-05-04 19:08 42.95322 -50.26469 32134 ft 358 kts 254°
2026-05-04 19:08 42.94146 -50.33080 32055 ft 356 kts 254°
2026-05-04 19:09 42.92978 -50.39614 32053 ft 355 kts 254°
2026-05-04 19:09 42.91804 -50.46156 32059 ft 355 kts 254°
2026-05-04 19:10 42.90628 -50.52685 32056 ft 354 kts 254°
2026-05-04 19:10 42.89448 -50.59214 32056 ft 354 kts 254°
2026-05-04 19:11 42.88265 -50.65740 32053 ft 354 kts 254°
2026-05-04 19:11 42.87077 -50.72260 32063 ft 353 kts 254°
2026-05-04 19:12 42.85298 -50.81995 32062 ft 352 kts 254°
2026-05-04 19:13 42.84110 -50.88469 32061 ft 352 kts 254°
2026-05-04 19:13 42.82918 -50.94940 32074 ft 352 kts 254°
2026-05-04 19:14 42.81724 -51.01395 32063 ft 351 kts 254°
2026-05-04 19:14 42.80529 -51.07837 32046 ft 350 kts 254°
2026-05-04 19:15 42.79340 -51.14227 32058 ft 347 kts 254°
2026-05-04 19:15 42.78148 -51.20609 32053 ft 348 kts 254°
2026-05-04 19:16 42.76953 -51.26987 32056 ft 348 kts 254°
2026-05-04 19:16 42.75956 -51.32286 32056 ft 348 kts 254°
2026-05-04 19:17 42.74755 -51.38657 32056 ft 348 kts 253°
2026-05-04 19:17 42.73551 -51.45025 32054 ft 348 kts 253°
2026-05-04 19:18 42.72347 -51.51369 32052 ft 345 kts 254°
2026-05-04 19:18 42.71144 -51.57688 32056 ft 345 kts 253°
2026-05-04 19:19 42.69938 -51.64001 32057 ft 345 kts 253°
2026-05-04 19:19 42.68727 -51.70315 32059 ft 345 kts 253°
2026-05-04 19:20 42.67515 -51.76623 32053 ft 345 kts 253°
2026-05-04 19:20 42.66298 -51.82930 32056 ft 345 kts 253°
2026-05-04 19:21 42.65083 -51.89208 32059 ft 341 kts 253°
2026-05-04 19:21 42.63873 -51.95439 32059 ft 342 kts 253°
2026-05-04 19:22 42.62658 -52.01679 32059 ft 342 kts 253°
2026-05-04 19:22 42.61440 -52.07910 32059 ft 342 kts 253°
2026-05-04 19:23 42.60219 -52.14142 32062 ft 342 kts 253°
2026-05-04 19:23 42.58994 -52.20369 32096 ft 342 kts 253°
2026-05-04 19:24 42.57774 -52.26559 32060 ft 340 kts 253°
2026-05-04 19:24 42.56549 -52.32750 32061 ft 340 kts 253°
2026-05-04 19:25 42.55318 -52.38952 32062 ft 340 kts 253°
2026-05-04 19:25 42.54086 -52.45140 32061 ft 340 kts 253°
2026-05-04 19:26 42.52849 -52.51331 32055 ft 340 kts 253°
2026-05-04 19:26 42.51610 -52.57515 32060 ft 340 kts 253°
2026-05-04 19:27 42.50369 -52.63694 32068 ft 339 kts 253°
2026-05-04 19:27 42.49128 -52.69851 32065 ft 339 kts 253°
2026-05-04 19:28 42.47884 -52.76005 32060 ft 338 kts 253°
2026-05-04 19:28 42.46637 -52.82152 32059 ft 338 kts 253°
2026-05-04 19:29 42.45387 -52.88298 32071 ft 339 kts 253°
2026-05-04 19:29 42.44131 -52.94453 32064 ft 339 kts 253°
2026-05-04 19:30 42.42875 -53.00593 32055 ft 339 kts 253°
2026-05-04 19:30 42.41615 -53.06731 32054 ft 338 kts 253°
2026-05-04 19:31 42.40353 -53.12863 32061 ft 338 kts 253°
2026-05-04 19:31 42.39088 -53.18987 32070 ft 338 kts 253°
2026-05-04 19:32 42.37820 -53.25107 32065 ft 338 kts 253°
2026-05-04 19:32 42.36550 -53.31225 32052 ft 338 kts 253°
2026-05-04 19:33 42.35277 -53.37334 32067 ft 337 kts 253°
2026-05-04 19:33 42.34003 -53.43433 32059 ft 337 kts 253°
2026-05-04 19:34 42.32727 -53.49523 32072 ft 337 kts 253°
2026-05-04 19:34 42.31454 -53.55577 32061 ft 337 kts 253°
2026-05-04 19:35 42.30171 -53.61666 32059 ft 337 kts 253°
2026-05-04 19:35 42.28886 -53.67743 32062 ft 337 kts 253°
2026-05-04 19:36 42.27597 -53.73821 32034 ft 336 kts 253°
2026-05-04 19:36 42.26311 -53.79870 32055 ft 335 kts 252°
2026-05-04 19:37 42.25021 -53.85919 32056 ft 335 kts 252°
2026-05-04 19:37 42.23730 -53.91956 32062 ft 335 kts 252°
2026-05-04 19:38 42.22435 -53.97993 32054 ft 335 kts 252°
2026-05-04 19:38 42.21139 -54.04022 32060 ft 335 kts 252°
2026-05-04 19:39 42.19838 -54.10052 32048 ft 335 kts 252°
2026-05-04 19:39 42.18533 -54.16085 32069 ft 335 kts 252°
2026-05-04 19:40 42.17227 -54.22104 32066 ft 334 kts 252°
2026-05-04 19:40 42.15920 -54.28114 32059 ft 334 kts 252°
2026-05-04 19:41 42.14611 -54.34117 32056 ft 334 kts 252°
2026-05-04 19:41 42.13300 -54.40110 32059 ft 334 kts 252°
2026-05-04 19:42 42.11985 -54.46104 32059 ft 334 kts 252°
2026-05-04 19:42 42.10671 -54.52080 32049 ft 333 kts 252°
2026-05-04 19:43 42.09354 -54.58052 32055 ft 333 kts 252°
2026-05-04 19:43 42.08033 -54.64022 32058 ft 333 kts 252°
2026-05-04 19:44 42.06711 -54.69985 32060 ft 332 kts 252°
2026-05-04 19:44 42.05384 -54.75950 32073 ft 333 kts 252°
2026-05-04 19:45 42.04054 -54.81917 32067 ft 333 kts 252°
2026-05-04 19:45 42.02726 -54.87875 32067 ft 332 kts 252°
2026-05-04 19:46 42.01396 -54.93817 32065 ft 332 kts 252°
2026-05-04 19:46 41.99950 -54.99696 32065 ft 331 kts 249°
2026-05-04 19:47 41.98048 -55.05338 32065 ft 332 kts 245°
2026-05-04 19:47 41.95985 -55.10875 32064 ft 331 kts 245°
2026-05-04 19:48 41.93943 -55.16430 32057 ft 331 kts 245°
2026-05-04 19:48 41.91900 -55.21979 32105 ft 333 kts 245°
2026-05-04 19:48 41.90876 -55.24755 32341 ft 331 kts 245°
2026-05-04 19:49 41.89857 -55.27511 32636 ft 327 kts 245°
2026-05-04 19:49 41.88851 -55.30231 32958 ft 324 kts 245°
2026-05-04 19:49 41.87854 -55.32921 33254 ft 320 kts 245°
2026-05-04 19:49 41.86865 -55.35586 33546 ft 317 kts 245°
2026-05-04 19:50 41.85887 -55.38221 33825 ft 314 kts 245°
2026-05-04 19:50 41.84917 -55.40831 34045 ft 312 kts 244°
2026-05-04 19:50 41.83951 -55.43426 34068 ft 310 kts 244°
2026-05-04 19:51 41.82021 -55.48613 34111 ft 313 kts 244°
2026-05-04 19:51 41.80095 -55.53769 34071 ft 308 kts 244°
2026-05-04 19:52 41.78169 -55.58919 34078 ft 309 kts 244°
2026-05-04 19:52 41.76240 -55.64065 34080 ft 309 kts 244°
2026-05-04 19:53 41.74310 -55.69207 34077 ft 309 kts 244°
2026-05-04 19:53 41.72376 -55.74354 34049 ft 310 kts 244°
2026-05-04 19:54 41.70435 -55.79506 34067 ft 311 kts 244°
2026-05-04 19:54 41.68496 -55.84640 34074 ft 311 kts 244°
2026-05-04 19:55 41.66527 -55.89847 34082 ft 312 kts 244°
2026-05-04 19:55 41.64578 -55.94994 34085 ft 312 kts 243°
2026-05-04 19:56 41.62613 -56.00174 34086 ft 313 kts 243°
2026-05-04 19:56 41.60642 -56.05360 34077 ft 314 kts 243°
2026-05-04 19:57 41.58662 -56.10559 34078 ft 314 kts 243°
2026-05-04 19:57 41.56673 -56.15771 34085 ft 315 kts 243°
2026-05-04 19:58 41.54679 -56.20989 34091 ft 316 kts 243°
2026-05-04 19:58 41.52680 -56.26211 34091 ft 316 kts 243°
2026-05-04 19:59 41.50676 -56.31436 34090 ft 316 kts 243°
2026-05-04 19:59 41.48688 -56.36607 34087 ft 308 kts 243°
2026-05-04 20:00 41.46728 -56.41698 34087 ft 311 kts 243°
2026-05-04 20:00 41.44759 -56.46809 34089 ft 309 kts 243°
2026-05-04 20:01 41.42788 -56.51908 34091 ft 310 kts 243°
2026-05-04 20:01 41.41133 -56.56185 34088 ft 310 kts 243°
2026-05-04 20:02 41.39155 -56.61292 34071 ft 311 kts 243°
2026-05-04 20:02 41.37180 -56.66377 34085 ft 311 kts 243°
2026-05-04 20:03 41.35173 -56.71535 34094 ft 312 kts 243°
2026-05-04 20:03 41.33185 -56.76639 34097 ft 313 kts 243°
2026-05-04 20:04 41.31181 -56.81777 34096 ft 313 kts 243°
2026-05-04 20:04 41.29171 -56.86919 34075 ft 314 kts 242°
2026-05-04 20:05 41.27152 -56.92077 34085 ft 315 kts 242°
2026-05-04 20:05 41.25119 -56.97254 34098 ft 316 kts 242°
2026-05-04 20:06 41.23082 -57.02437 34100 ft 317 kts 242°
2026-05-04 20:06 41.21038 -57.07631 34106 ft 317 kts 242°
2026-05-04 20:07 41.18989 -57.12826 34110 ft 318 kts 242°
2026-05-04 20:07 41.16938 -57.18020 34100 ft 316 kts 242°
2026-05-04 20:08 41.14910 -57.23143 34102 ft 314 kts 242°
2026-05-04 20:08 41.12873 -57.28279 34102 ft 314 kts 242°
2026-05-04 20:09 41.10835 -57.33410 34102 ft 314 kts 242°
2026-05-04 20:09 41.08794 -57.38538 34105 ft 315 kts 242°
2026-05-04 20:10 41.06750 -57.43668 34092 ft 315 kts 242°
2026-05-04 20:10 41.04699 -57.48802 34098 ft 316 kts 242°
2026-05-04 20:11 41.02642 -57.53945 34104 ft 316 kts 242°
2026-05-04 20:11 41.00581 -57.59089 34108 ft 316 kts 242°
2026-05-04 20:12 40.98528 -57.64206 34112 ft 317 kts 242°
2026-05-04 20:12 40.96446 -57.69384 34079 ft 317 kts 241°
2026-05-04 20:13 40.94380 -57.74514 34095 ft 319 kts 241°
2026-05-04 20:13 40.92291 -57.79690 34106 ft 320 kts 241°
2026-05-04 20:14 40.90194 -57.84881 34118 ft 320 kts 241°
2026-05-04 20:14 40.88091 -57.90075 34120 ft 321 kts 241°
2026-05-04 20:15 40.85984 -57.95272 34115 ft 321 kts 241°
2026-05-04 20:15 40.83885 -58.00440 34108 ft 316 kts 241°
2026-05-04 20:16 40.81800 -58.05563 34114 ft 318 kts 241°
2026-05-04 20:16 40.79706 -58.10698 34113 ft 318 kts 241°
2026-05-04 20:17 40.77596 -58.15865 34119 ft 318 kts 241°
2026-05-04 20:17 40.75514 -58.20956 34118 ft 318 kts 241°
2026-05-04 20:18 40.73413 -58.26083 34107 ft 318 kts 240°
2026-05-04 20:18 40.71307 -58.31213 34109 ft 319 kts 240°
2026-05-04 20:19 40.69194 -58.36352 34112 ft 319 kts 240°
2026-05-04 20:19 40.67078 -58.41492 34114 ft 319 kts 240°
2026-05-04 20:20 40.64955 -58.46636 34118 ft 320 kts 240°
2026-05-04 20:20 40.62831 -58.51778 34114 ft 320 kts 240°
2026-05-04 20:21 40.60699 -58.56927 34116 ft 320 kts 240°
2026-05-04 20:21 40.57494 -58.64651 34121 ft 321 kts 240°
2026-05-04 20:22 40.55350 -58.69808 34118 ft 321 kts 240°
2026-05-04 20:22 40.53205 -58.74961 34120 ft 321 kts 240°
2026-05-04 20:23 40.51043 -58.80144 34125 ft 327 kts 240°
2026-05-04 20:23 40.48847 -58.85397 34123 ft 328 kts 240°
2026-05-04 20:24 40.46650 -58.90647 34121 ft 328 kts 240°
2026-05-04 20:24 40.44449 -58.95894 34120 ft 328 kts 240°
2026-05-04 20:25 40.42246 -59.01139 34124 ft 328 kts 240°
2026-05-04 20:25 40.40051 -59.06354 34131 ft 322 kts 240°
2026-05-04 20:26 40.37889 -59.11483 34118 ft 323 kts 240°
2026-05-04 20:26 40.35712 -59.16639 34118 ft 323 kts 240°
2026-05-04 20:27 40.33536 -59.21782 34127 ft 323 kts 240°
2026-05-04 20:27 40.31355 -59.26930 34128 ft 323 kts 240°
2026-05-04 20:28 40.29165 -59.32092 34163 ft 327 kts 239°
2026-05-04 20:28 40.26985 -59.37220 34128 ft 322 kts 239°
2026-05-04 20:29 40.24782 -59.42394 34129 ft 324 kts 239°
2026-05-04 20:29 40.22587 -59.47539 34130 ft 324 kts 239°
2026-05-04 20:30 40.20390 -59.52682 34129 ft 324 kts 239°
2026-05-04 20:30 40.18204 -59.57794 34137 ft 327 kts 239°
2026-05-04 20:31 40.15972 -59.62997 34136 ft 324 kts 239°
2026-05-04 20:31 40.13773 -59.68117 34131 ft 324 kts 239°
2026-05-04 20:32 40.11562 -59.73256 34125 ft 324 kts 239°
2026-05-04 20:32 40.09349 -59.78395 34133 ft 324 kts 239°
2026-05-04 20:33 40.07134 -59.83531 34114 ft 326 kts 239°
2026-05-04 20:33 40.04885 -59.88738 34192 ft 331 kts 239°
2026-05-04 20:34 40.02657 -59.93894 34136 ft 323 kts 239°
2026-05-04 20:34 40.00417 -59.99014 34132 ft 325 kts 238°
2026-05-04 20:35 39.97898 -60.03911 34137 ft 325 kts 234°
2026-05-04 20:35 39.95282 -60.08717 34081 ft 326 kts 235°
2026-05-04 20:36 39.92652 -60.13596 34142 ft 332 kts 234°
2026-05-04 20:36 39.90001 -60.18496 34150 ft 329 kts 235°
2026-05-04 20:37 39.87390 -60.23312 34137 ft 325 kts 234°
2026-05-04 20:37 39.84769 -60.28139 34138 ft 326 kts 234°
2026-05-04 20:38 39.82149 -60.32957 34113 ft 327 kts 234°
2026-05-04 20:38 39.79491 -60.37833 34135 ft 332 kts 234°
2026-05-04 20:39 39.76821 -60.42725 34139 ft 332 kts 234°
2026-05-04 20:39 39.74153 -60.47608 34140 ft 329 kts 234°
2026-05-04 20:40 39.71521 -60.52416 34140 ft 327 kts 234°
2026-05-04 20:40 39.68877 -60.57240 34145 ft 329 kts 234°
2026-05-04 20:41 39.66195 -60.62125 34138 ft 333 kts 234°
2026-05-04 20:41 39.63512 -60.67002 34138 ft 332 kts 234°
2026-05-04 20:42 39.60826 -60.71879 34140 ft 332 kts 234°
2026-05-04 20:42 39.58140 -60.76748 34136 ft 330 kts 234°
2026-05-04 20:43 39.55489 -60.81548 34148 ft 329 kts 234°
2026-05-04 20:43 39.52815 -60.86379 34140 ft 332 kts 234°
2026-05-04 20:44 39.50122 -60.91239 34144 ft 332 kts 234°
2026-05-04 20:44 39.47426 -60.96098 34146 ft 332 kts 234°
2026-05-04 20:45 39.44728 -61.00952 34143 ft 332 kts 234°
2026-05-04 20:45 39.42465 -61.05017 34170 ft 332 kts 233°
2026-05-04 20:46 39.39762 -61.09867 34143 ft 332 kts 233°
2026-05-04 20:46 39.37055 -61.14717 34141 ft 333 kts 233°
2026-05-04 20:47 39.34343 -61.19567 34149 ft 333 kts 233°
2026-05-04 20:47 39.31634 -61.24406 34143 ft 333 kts 233°
2026-05-04 20:48 39.28920 -61.29246 34124 ft 333 kts 233°
2026-05-04 20:48 39.26178 -61.34129 34188 ft 337 kts 233°
2026-05-04 20:49 39.23457 -61.38967 34147 ft 332 kts 233°
2026-05-04 20:49 39.20752 -61.43768 34146 ft 333 kts 233°
2026-05-04 20:50 39.18028 -61.48597 34149 ft 333 kts 233°
2026-05-04 20:50 39.15302 -61.53421 34151 ft 333 kts 233°
2026-05-04 20:51 39.12574 -61.58241 34150 ft 333 kts 233°
2026-05-04 20:51 39.09843 -61.63061 34152 ft 333 kts 233°
2026-05-04 20:52 39.07111 -61.67874 34155 ft 333 kts 233°
2026-05-04 20:52 39.04376 -61.72686 34149 ft 333 kts 233°
2026-05-04 20:53 39.01639 -61.77494 34140 ft 334 kts 233°
2026-05-04 20:53 38.98872 -61.82348 34147 ft 337 kts 233°
2026-05-04 20:54 38.96100 -61.87204 34156 ft 337 kts 233°
2026-05-04 20:54 38.93327 -61.92053 34179 ft 337 kts 233°
2026-05-04 20:55 38.90580 -61.96849 34164 ft 331 kts 233°
2026-05-04 20:55 38.87836 -62.01634 34129 ft 334 kts 233°
2026-05-04 20:56 38.85058 -62.06470 34164 ft 338 kts 233°
2026-05-04 20:56 38.82291 -62.11280 34164 ft 337 kts 233°
2026-05-04 20:57 38.79486 -62.16149 34170 ft 337 kts 233°
2026-05-04 20:57 38.76697 -62.20983 34162 ft 337 kts 233°
2026-05-04 20:58 38.73938 -62.25757 34121 ft 332 kts 232°
2026-05-04 20:58 38.71163 -62.30551 34168 ft 338 kts 232°
2026-05-04 20:59 38.68369 -62.35373 34167 ft 337 kts 232°
2026-05-04 20:59 38.65574 -62.40188 34167 ft 337 kts 232°
2026-05-04 21:00 38.62780 -62.44996 34178 ft 336 kts 232°
2026-05-04 21:00 38.59982 -62.49802 34139 ft 337 kts 232°
2026-05-04 21:01 38.57175 -62.54616 34177 ft 338 kts 232°
2026-05-04 21:01 38.54363 -62.59432 34184 ft 338 kts 232°
2026-05-04 21:02 38.51552 -62.64244 34178 ft 338 kts 232°
2026-05-04 21:02 38.48777 -62.69083 34182 ft 338 kts 234°
2026-05-04 21:03 38.46241 -62.74139 34176 ft 338 kts 235°
2026-05-04 21:03 38.43715 -62.79210 34153 ft 339 kts 235°
2026-05-04 21:04 38.41157 -62.84264 34178 ft 338 kts 234°
2026-05-04 21:04 38.38612 -62.89265 34174 ft 336 kts 234°
2026-05-04 21:05 38.36061 -62.94263 34175 ft 336 kts 234°
2026-05-04 21:05 38.33509 -62.99259 34174 ft 336 kts 234°
2026-05-04 21:06 38.30954 -63.04253 34158 ft 337 kts 234°
2026-05-04 21:06 38.28366 -63.09303 34180 ft 342 kts 234°
2026-05-04 21:07 38.25772 -63.14362 34197 ft 339 kts 234°
2026-05-04 21:07 38.23217 -63.19335 34180 ft 336 kts 234°
2026-05-04 21:08 38.20648 -63.24319 34179 ft 337 kts 234°
2026-05-04 21:08 38.18082 -63.29291 34177 ft 336 kts 234°
2026-05-04 21:09 38.15501 -63.34283 34183 ft 341 kts 234°
2026-05-04 21:09 38.12891 -63.39326 34179 ft 341 kts 234°
2026-05-04 21:10 38.10283 -63.44358 34202 ft 340 kts 234°
2026-05-04 21:10 38.07734 -63.49273 34181 ft 335 kts 234°
2026-05-04 21:11 38.05158 -63.54222 34185 ft 336 kts 234°
2026-05-04 21:11 38.02583 -63.59168 34147 ft 337 kts 234°
2026-05-04 21:12 37.99973 -63.64168 34187 ft 342 kts 234°
2026-05-04 21:12 37.97357 -63.69180 34193 ft 340 kts 234°
2026-05-04 21:13 37.94736 -63.74190 34232 ft 341 kts 233°
2026-05-04 21:13 37.92156 -63.79117 34193 ft 333 kts 233°
2026-05-04 21:14 37.89582 -63.84020 34186 ft 335 kts 233°
2026-05-04 21:14 37.86999 -63.88935 34195 ft 338 kts 233°
2026-05-04 21:15 37.84381 -63.93908 34194 ft 339 kts 233°
2026-05-04 21:15 37.81766 -63.98871 34173 ft 339 kts 233°
2026-05-04 21:16 37.79149 -64.03830 34171 ft 339 kts 233°
2026-05-04 21:16 37.76559 -64.08731 34186 ft 330 kts 233°
2026-05-04 21:17 37.73999 -64.13563 34188 ft 332 kts 233°
2026-05-04 21:17 37.71428 -64.18412 34187 ft 332 kts 233°
2026-05-04 21:18 37.68856 -64.23256 34187 ft 332 kts 233°
2026-05-04 21:18 37.66283 -64.28095 34185 ft 332 kts 233°
2026-05-04 21:19 37.63706 -64.32933 34183 ft 332 kts 233°
2026-05-04 21:19 37.61123 -64.37769 34194 ft 335 kts 234°
2026-05-04 21:20 37.58500 -64.42677 34148 ft 338 kts 234°
2026-05-04 21:20 37.55922 -64.47514 34185 ft 330 kts 234°
2026-05-04 21:21 37.53337 -64.52335 34191 ft 332 kts 233°
2026-05-04 21:21 37.50768 -64.57123 34191 ft 332 kts 233°
2026-05-04 21:22 37.48163 -64.61972 34186 ft 332 kts 233°
2026-05-04 21:22 37.45589 -64.66755 34190 ft 332 kts 233°
2026-05-04 21:23 37.42979 -64.71600 34137 ft 332 kts 233°
2026-05-04 21:23 37.40382 -64.76413 34185 ft 333 kts 233°
2026-05-04 21:24 37.37789 -64.81211 34193 ft 334 kts 233°
2026-05-04 21:24 37.35156 -64.86077 34188 ft 335 kts 233°
2026-05-04 21:25 37.32550 -64.90887 34194 ft 335 kts 233°
2026-05-04 21:25 37.29925 -64.95724 34195 ft 335 kts 233°
2026-05-04 21:26 37.27274 -65.00601 34170 ft 335 kts 233°
2026-05-04 21:26 37.24683 -65.05369 34192 ft 333 kts 233°
2026-05-04 21:27 37.22061 -65.10175 34191 ft 334 kts 233°
2026-05-04 21:27 37.19441 -65.14974 34192 ft 333 kts 233°
2026-05-04 21:28 37.16818 -65.19771 34193 ft 333 kts 233°
2026-05-04 21:28 37.14195 -65.24564 34191 ft 333 kts 233°
2026-05-04 21:29 37.11570 -65.29354 34190 ft 334 kts 233°
2026-05-04 21:29 37.08926 -65.34157 34192 ft 334 kts 233°
2026-05-04 21:30 37.06715 -65.38183 34192 ft 335 kts 233°
2026-05-04 21:30 37.04090 -65.42958 34193 ft 335 kts 233°
2026-05-04 21:31 37.00118 -65.50162 34196 ft 335 kts 233°
2026-05-04 21:32 36.97467 -65.54961 34198 ft 335 kts 233°
2026-05-04 21:32 36.94819 -65.59754 34186 ft 335 kts 233°
2026-05-04 21:33 36.92156 -65.64557 34195 ft 339 kts 233°
2026-05-04 21:33 36.89461 -65.69414 34195 ft 340 kts 233°
2026-05-04 21:34 36.86767 -65.74262 34198 ft 340 kts 233°
2026-05-04 21:34 36.84074 -65.79104 34195 ft 340 kts 233°
2026-05-04 21:35 36.81377 -65.83945 34191 ft 340 kts 233°
2026-05-04 21:35 36.78684 -65.88773 34204 ft 338 kts 233°
2026-05-04 21:36 36.75998 -65.93582 34248 ft 338 kts 234°
2026-05-04 21:36 36.73250 -65.98487 34195 ft 351 kts 234°
2026-05-04 21:37 36.70445 -66.03493 34191 ft 353 kts 234°
2026-05-04 21:37 36.67635 -66.08501 34195 ft 353 kts 234°
2026-05-04 21:38 36.64823 -66.13506 34198 ft 353 kts 234°
2026-05-04 21:38 36.62067 -66.18414 34197 ft 337 kts 233°
2026-05-04 21:39 36.59356 -66.23216 34195 ft 341 kts 233°
2026-05-04 21:39 36.56604 -66.28085 34202 ft 350 kts 234°
2026-05-04 21:40 36.53756 -66.33121 34195 ft 360 kts 234°
2026-05-04 21:40 36.50868 -66.38223 34194 ft 361 kts 234°
2026-05-04 21:41 36.47980 -66.43318 34197 ft 361 kts 234°
2026-05-04 21:41 36.45148 -66.48312 34193 ft 349 kts 233°
2026-05-04 21:42 36.42348 -66.53232 34195 ft 352 kts 233°
2026-05-04 21:42 36.39517 -66.58201 34204 ft 354 kts 234°
2026-05-04 21:43 36.36620 -66.63276 34198 ft 365 kts 234°
2026-05-04 21:43 36.33675 -66.68437 34199 ft 366 kts 234°
2026-05-04 21:44 36.30733 -66.73582 34173 ft 366 kts 234°
2026-05-04 21:44 36.27825 -66.78662 34194 ft 360 kts 233°
2026-05-04 21:45 36.24913 -66.83736 34197 ft 361 kts 233°
2026-05-04 21:45 36.21998 -66.88808 34194 ft 361 kts 233°
2026-05-04 21:46 36.19043 -66.93930 34192 ft 370 kts 235°
2026-05-04 21:46 36.16053 -66.99126 34195 ft 370 kts 235°
2026-05-04 21:47 36.13059 -67.04317 34197 ft 370 kts 234°
2026-05-04 21:47 36.10065 -67.09498 34195 ft 370 kts 234°
2026-05-04 21:48 36.07070 -67.14672 34194 ft 370 kts 234°
2026-05-04 21:48 36.04070 -67.19847 34195 ft 370 kts 234°
2026-05-04 21:49 36.01060 -67.25027 34178 ft 372 kts 235°
2026-05-04 21:49 35.98035 -67.30229 34187 ft 373 kts 235°
2026-05-04 21:50 35.95007 -67.35437 34197 ft 373 kts 235°
2026-05-04 21:50 35.91970 -67.40639 34198 ft 374 kts 234°
2026-05-04 21:51 35.88930 -67.45841 34201 ft 374 kts 234°
2026-05-04 21:51 35.85907 -67.51008 34202 ft 374 kts 234°
2026-05-04 21:52 35.82856 -67.56215 34193 ft 375 kts 235°
2026-05-04 21:52 35.79795 -67.61434 34148 ft 376 kts 235°
2026-05-04 21:53 35.76728 -67.66656 34187 ft 377 kts 235°
2026-05-04 21:53 35.73649 -67.71885 34195 ft 378 kts 235°
2026-05-04 21:54 35.70563 -67.77118 34204 ft 378 kts 235°
2026-05-04 21:54 35.67471 -67.82357 34202 ft 378 kts 235°
2026-05-04 21:55 35.64374 -67.87594 34203 ft 379 kts 235°
2026-05-04 21:55 35.61279 -67.92824 34202 ft 378 kts 234°
2026-05-04 21:56 35.58182 -67.98046 34202 ft 378 kts 234°
2026-05-04 21:56 35.55083 -68.03262 34202 ft 378 kts 234°
2026-05-04 21:57 35.51983 -68.08474 34200 ft 378 kts 234°
2026-05-04 21:57 35.48880 -68.13683 34201 ft 378 kts 234°
2026-05-04 21:58 35.45777 -68.18885 34209 ft 378 kts 234°
2026-05-04 21:58 35.42660 -68.24103 34175 ft 380 kts 234°
2026-05-04 21:59 35.39529 -68.29336 34188 ft 381 kts 234°
2026-05-04 21:59 35.36389 -68.34576 34197 ft 382 kts 234°
2026-05-04 22:00 35.33238 -68.39826 34193 ft 383 kts 234°
2026-05-04 22:00 35.30085 -68.45071 34198 ft 383 kts 234°
2026-05-04 22:01 35.26926 -68.50321 34214 ft 383 kts 234°
2026-05-04 22:01 35.23769 -68.55560 34178 ft 384 kts 234°
2026-05-04 22:02 35.20589 -68.60827 34198 ft 386 kts 234°
2026-05-04 22:02 35.17418 -68.66073 34199 ft 386 kts 234°
2026-05-04 22:03 35.14217 -68.71358 34204 ft 387 kts 234°
2026-05-04 22:03 35.11014 -68.76640 34206 ft 387 kts 234°
2026-05-04 22:04 35.07806 -68.81923 34171 ft 387 kts 234°
2026-05-04 22:04 35.04603 -68.87188 34209 ft 387 kts 234°
2026-05-04 22:05 35.01381 -68.92471 34196 ft 389 kts 234°
2026-05-04 22:05 34.98149 -68.97772 34198 ft 389 kts 234°
2026-05-04 22:06 34.94912 -69.03072 34201 ft 390 kts 234°
2026-05-04 22:06 34.91671 -69.08368 34199 ft 390 kts 234°
2026-05-04 22:07 34.88431 -69.13660 34196 ft 389 kts 234°
2026-05-04 22:07 34.85189 -69.18941 34197 ft 389 kts 233°
2026-05-04 22:08 34.81937 -69.24225 34201 ft 391 kts 234°
2026-05-04 22:08 34.78679 -69.29518 34197 ft 391 kts 234°
2026-05-04 22:09 34.75418 -69.34808 34197 ft 391 kts 234°
2026-05-04 22:09 34.72176 -69.40059 34197 ft 391 kts 234°
2026-05-04 22:10 34.68888 -69.45378 34179 ft 392 kts 234°
2026-05-04 22:10 34.65631 -69.50636 34190 ft 393 kts 234°
2026-05-04 22:11 34.62340 -69.55939 34198 ft 393 kts 234°
2026-05-04 22:11 34.59045 -69.61244 34200 ft 394 kts 234°
2026-05-04 22:12 34.55746 -69.66549 34202 ft 394 kts 234°
2026-05-04 22:12 34.52443 -69.71850 34202 ft 394 kts 234°
2026-05-04 22:13 34.49135 -69.77152 34193 ft 394 kts 234°
2026-05-04 22:13 34.45819 -69.82459 34191 ft 395 kts 234°
2026-05-04 22:14 34.42498 -69.87765 34206 ft 396 kts 234°
2026-05-04 22:14 34.39163 -69.93087 34198 ft 397 kts 234°
2026-05-04 22:15 34.35825 -69.98405 34202 ft 397 kts 234°
2026-05-04 22:15 34.33050 -70.02820 34201 ft 397 kts 234°
2026-05-04 22:16 34.29708 -70.08131 34196 ft 397 kts 234°
2026-05-04 22:16 34.26362 -70.13440 34196 ft 397 kts 234°
2026-05-04 22:17 34.23015 -70.18741 34194 ft 397 kts 234°
2026-05-04 22:17 34.19661 -70.24045 34194 ft 398 kts 234°
2026-05-04 22:18 34.16302 -70.29353 34195 ft 398 kts 234°
2026-05-04 22:18 34.12939 -70.34658 34158 ft 398 kts 234°
2026-05-04 22:19 34.09570 -70.39964 34181 ft 399 kts 234°
2026-05-04 22:19 34.06190 -70.45279 34185 ft 400 kts 234°
2026-05-04 22:20 34.02799 -70.50604 34188 ft 400 kts 234°
2026-05-04 22:20 33.99403 -70.55927 34194 ft 401 kts 234°
2026-05-04 22:21 33.95996 -70.61263 34192 ft 402 kts 234°
2026-05-04 22:21 33.92585 -70.66596 34186 ft 402 kts 234°
2026-05-04 22:22 33.89170 -70.71930 34183 ft 403 kts 234°
2026-05-04 22:22 33.85743 -70.77276 34190 ft 403 kts 234°
2026-05-04 22:23 33.82314 -70.82618 34193 ft 404 kts 234°
2026-05-04 22:23 33.78880 -70.87961 34194 ft 404 kts 234°
2026-05-04 22:24 33.75435 -70.93311 34206 ft 405 kts 234°
2026-05-04 22:24 33.71988 -70.98661 34190 ft 405 kts 234°
2026-05-04 22:25 33.68529 -71.03998 34188 ft 405 kts 233°
2026-05-04 22:25 33.65027 -71.09292 34187 ft 405 kts 234°
2026-05-04 22:26 33.61595 -71.14651 34188 ft 405 kts 234°
2026-05-04 22:26 33.58147 -71.19990 34188 ft 405 kts 234°
2026-05-04 22:27 33.54683 -71.25318 34188 ft 405 kts 234°
2026-05-04 22:27 33.51244 -71.30598 34187 ft 404 kts 234°
2026-05-04 22:28 33.47780 -71.35908 34183 ft 404 kts 234°
2026-05-04 22:28 33.44314 -71.41213 34184 ft 405 kts 234°
2026-05-04 22:29 33.40843 -71.46520 34185 ft 405 kts 234°
2026-05-04 22:29 33.37369 -71.51822 34185 ft 405 kts 234°
2026-05-04 22:30 33.33892 -71.57121 34185 ft 405 kts 234°
2026-05-04 22:30 33.30413 -71.62418 34181 ft 405 kts 233°
2026-05-04 22:31 33.26931 -71.67710 34179 ft 405 kts 233°
2026-05-04 22:31 33.23446 -71.72998 34179 ft 405 kts 233°
2026-05-04 22:32 33.19959 -71.78283 34179 ft 405 kts 233°
2026-05-04 22:32 33.16466 -71.83568 34176 ft 405 kts 233°
2026-05-04 22:33 33.12974 -71.88845 34133 ft 405 kts 233°
2026-05-04 22:33 33.09483 -71.94114 34169 ft 406 kts 233°
2026-05-04 22:34 33.05978 -71.99395 34168 ft 406 kts 233°
2026-05-04 22:34 33.02467 -72.04679 34171 ft 407 kts 233°
2026-05-04 22:35 32.98948 -72.09964 34172 ft 407 kts 233°
2026-05-04 22:35 32.95428 -72.15246 34173 ft 407 kts 233°
2026-05-04 22:36 32.91905 -72.20523 34145 ft 407 kts 233°
2026-05-04 22:36 32.88382 -72.25793 34186 ft 407 kts 233°
2026-05-04 22:37 32.84848 -72.31071 34163 ft 408 kts 234°
2026-05-04 22:37 32.81309 -72.36352 34167 ft 409 kts 233°
2026-05-04 22:38 32.77761 -72.41636 34168 ft 409 kts 233°
2026-05-04 22:38 32.74209 -72.46921 34167 ft 409 kts 233°
2026-05-04 22:39 32.70655 -72.52199 34125 ft 409 kts 234°
2026-05-04 22:39 32.67105 -72.57463 34166 ft 408 kts 234°
2026-05-04 22:40 32.63555 -72.62722 34157 ft 409 kts 234°
2026-05-04 22:40 32.59999 -72.67981 34158 ft 409 kts 234°
2026-05-04 22:41 32.56437 -72.73242 34158 ft 409 kts 234°
2026-05-04 22:41 32.52871 -72.78502 34158 ft 409 kts 234°
2026-05-04 22:42 32.49326 -72.83723 34146 ft 409 kts 234°
2026-05-04 22:42 32.45772 -72.88933 34156 ft 405 kts 235°
2026-05-04 22:43 32.42237 -72.94130 34156 ft 406 kts 235°
2026-05-04 22:43 32.38691 -72.99334 34153 ft 406 kts 235°
2026-05-04 22:44 32.35142 -73.04533 34150 ft 406 kts 235°
2026-05-04 22:44 32.31590 -73.09729 34151 ft 406 kts 235°
2026-05-04 22:45 32.28036 -73.14919 34152 ft 406 kts 235°
2026-05-04 22:45 32.22704 -73.22692 34151 ft 406 kts 235°
2026-05-04 22:46 32.19144 -73.27874 34149 ft 406 kts 235°
2026-05-04 22:46 32.15584 -73.33048 34240 ft 407 kts 235°
2026-05-04 22:47 32.13801 -73.35637 34437 ft 406 kts 235°
2026-05-04 22:47 32.12022 -73.38217 34647 ft 404 kts 235°
2026-05-04 22:47 32.10254 -73.40781 34842 ft 403 kts 235°
2026-05-04 22:47 32.08485 -73.43344 35029 ft 402 kts 235°
2026-05-04 22:48 32.06723 -73.45896 35221 ft 401 kts 235°
2026-05-04 22:48 32.04963 -73.48441 35398 ft 399 kts 235°
2026-05-04 22:48 32.03215 -73.50970 35601 ft 398 kts 235°
2026-05-04 22:48 32.01469 -73.53492 35775 ft 397 kts 235°
2026-05-04 22:49 31.99725 -73.56012 35952 ft 396 kts 235°
2026-05-04 22:49 31.97983 -73.58526 36127 ft 395 kts 235°
2026-05-04 22:49 31.94508 -73.63536 36142 ft 394 kts 235°
2026-05-04 22:50 31.91037 -73.68533 36141 ft 395 kts 235°
2026-05-04 22:50 31.87564 -73.73529 36140 ft 394 kts 235°
2026-05-04 22:51 31.84088 -73.78521 36141 ft 394 kts 235°
2026-05-04 22:51 31.80604 -73.83520 36144 ft 396 kts 235°
2026-05-04 22:52 31.77103 -73.88528 36152 ft 397 kts 234°
2026-05-04 22:52 31.73595 -73.93541 36153 ft 398 kts 234°
2026-05-04 22:53 31.70083 -73.98560 36133 ft 397 kts 234°
2026-05-04 22:53 31.66591 -74.03542 36142 ft 394 kts 235°
2026-05-04 22:54 31.63101 -74.08519 36133 ft 395 kts 235°
2026-05-04 22:54 31.59603 -74.13499 36120 ft 397 kts 234°
2026-05-04 22:55 31.56076 -74.18512 36133 ft 398 kts 234°
2026-05-04 22:55 31.52573 -74.23480 36131 ft 398 kts 234°
2026-05-04 22:56 31.49049 -74.28474 36131 ft 398 kts 234°
2026-05-04 22:56 31.45525 -74.33462 36123 ft 397 kts 234°
2026-05-04 22:57 31.41995 -74.38450 36133 ft 398 kts 234°
2026-05-04 22:57 31.38468 -74.43429 36098 ft 397 kts 234°
2026-05-04 22:58 31.34936 -74.48412 36111 ft 398 kts 234°
2026-05-04 22:58 31.31396 -74.53395 36117 ft 399 kts 234°
2026-05-04 22:59 31.27845 -74.58389 36116 ft 399 kts 234°
2026-05-04 22:59 31.24291 -74.63379 36124 ft 400 kts 234°
2026-05-04 23:00 31.21307 -74.67564 36126 ft 400 kts 234°
2026-05-04 23:00 31.17748 -74.72550 36127 ft 400 kts 234°
2026-05-04 23:01 31.14183 -74.77542 36097 ft 400 kts 234°
2026-05-04 23:01 31.10590 -74.82564 36122 ft 404 kts 234°
2026-05-04 23:02 31.06987 -74.87589 36124 ft 403 kts 234°
2026-05-04 23:02 31.03386 -74.92607 36115 ft 404 kts 234°
2026-05-04 23:03 30.99780 -74.97625 36118 ft 404 kts 234°
2026-05-04 23:03 30.96174 -75.02639 36120 ft 404 kts 234°
2026-05-04 23:04 30.92565 -75.07648 36113 ft 404 kts 234°
2026-05-04 23:04 30.88955 -75.12655 36107 ft 404 kts 233°
2026-05-04 23:05 30.85341 -75.17660 36112 ft 404 kts 233°
2026-05-04 23:05 30.81744 -75.22634 36114 ft 405 kts 233°
2026-05-04 23:06 30.78119 -75.27641 36117 ft 405 kts 233°
2026-05-04 23:06 30.74466 -75.32679 36116 ft 405 kts 233°
2026-05-04 23:07 30.70835 -75.37681 36115 ft 405 kts 233°
2026-05-04 23:07 30.67205 -75.42677 36113 ft 404 kts 233°
2026-05-04 23:08 30.63596 -75.47636 36108 ft 405 kts 233°
2026-05-04 23:08 30.59958 -75.52628 36112 ft 405 kts 233°
2026-05-04 23:09 30.56319 -75.57615 36111 ft 405 kts 233°
2026-05-04 23:09 30.52674 -75.62605 36111 ft 405 kts 233°
2026-05-04 23:10 30.49030 -75.67588 36106 ft 405 kts 233°
2026-05-04 23:10 30.45380 -75.72571 36108 ft 405 kts 233°
2026-05-04 23:11 30.41736 -75.77540 36106 ft 404 kts 233°
2026-05-04 23:11 30.38088 -75.82508 36099 ft 405 kts 233°
2026-05-04 23:12 30.34435 -75.87478 36102 ft 405 kts 233°
2026-05-04 23:12 30.30774 -75.92450 36103 ft 406 kts 233°
2026-05-04 23:13 30.27115 -75.97416 36103 ft 406 kts 233°
2026-05-04 23:13 30.23450 -76.02382 36104 ft 406 kts 233°
2026-05-04 23:14 30.19785 -76.07342 36087 ft 405 kts 233°
2026-05-04 23:14 30.16125 -76.12289 36101 ft 405 kts 233°
2026-05-04 23:15 30.12460 -76.17237 36105 ft 406 kts 233°
2026-05-04 23:15 30.08813 -76.22156 36103 ft 406 kts 233°
2026-05-04 23:16 30.05139 -76.27103 36105 ft 406 kts 233°
2026-05-04 23:16 30.01459 -76.32052 36104 ft 406 kts 233°
2026-05-04 23:17 29.97779 -76.36996 36102 ft 406 kts 233°
2026-05-04 23:17 29.94097 -76.41936 36101 ft 406 kts 233°
2026-05-04 23:18 29.90414 -76.46872 36098 ft 406 kts 233°
2026-05-04 23:18 29.86726 -76.51807 36095 ft 407 kts 233°
2026-05-04 23:19 29.83032 -76.56744 36095 ft 407 kts 233°
2026-05-04 23:19 29.79335 -76.61680 36094 ft 407 kts 233°
2026-05-04 23:20 29.75634 -76.66615 36098 ft 407 kts 233°
2026-05-04 23:20 29.71931 -76.71546 36055 ft 407 kts 233°
2026-05-04 23:21 29.68231 -76.76468 36097 ft 406 kts 233°
2026-05-04 23:21 29.64534 -76.81384 36094 ft 407 kts 233°
2026-05-04 23:22 29.60865 -76.86326 36090 ft 405 kts 236°
2026-05-04 23:22 29.57723 -76.91683 36087 ft 405 kts 240°
2026-05-04 23:23 29.54657 -76.97113 36089 ft 405 kts 239°
2026-05-04 23:23 29.51575 -77.02533 36086 ft 406 kts 239°
2026-05-04 23:24 29.48506 -77.07917 36090 ft 406 kts 239°
2026-05-04 23:24 29.45415 -77.13332 36104 ft 405 kts 239°
2026-05-04 23:25 29.42325 -77.18740 36081 ft 405 kts 239°
2026-05-04 23:25 29.39231 -77.24146 36077 ft 406 kts 239°
2026-05-04 23:26 29.36130 -77.29558 36094 ft 406 kts 239°
2026-05-04 23:26 29.33021 -77.34975 36084 ft 407 kts 239°
2026-05-04 23:27 29.29909 -77.40394 36086 ft 407 kts 239°
2026-05-04 23:27 29.26793 -77.45810 36092 ft 407 kts 239°
2026-05-04 23:28 29.23675 -77.51222 36059 ft 407 kts 239°
2026-05-04 23:28 29.20560 -77.56624 36094 ft 406 kts 239°
2026-05-04 23:29 29.17439 -77.62028 36085 ft 407 kts 239°
2026-05-04 23:29 29.14313 -77.67435 36087 ft 408 kts 239°
2026-05-04 23:30 29.11177 -77.72847 36086 ft 408 kts 239°
2026-05-04 23:30 29.08037 -77.78262 36086 ft 409 kts 239°
2026-05-04 23:31 29.04896 -77.83674 36085 ft 409 kts 239°
2026-05-04 23:31 29.01749 -77.89087 36086 ft 409 kts 239°
2026-05-04 23:32 28.98599 -77.94498 36063 ft 408 kts 239°
2026-05-04 23:32 28.95472 -77.99863 36084 ft 410 kts 239°
2026-05-04 23:33 28.92292 -78.05313 36083 ft 409 kts 239°
2026-05-04 23:33 28.89154 -78.10681 36083 ft 409 kts 239°
2026-05-04 23:34 28.85990 -78.16089 36087 ft 410 kts 239°
2026-05-04 23:34 28.82825 -78.21491 36077 ft 410 kts 239°
2026-05-04 23:35 28.79659 -78.26889 36080 ft 410 kts 239°
2026-05-04 23:35 28.76488 -78.32287 36081 ft 410 kts 239°
2026-05-04 23:36 28.73316 -78.37680 36086 ft 408 kts 239°
2026-05-04 23:36 28.70154 -78.43050 36081 ft 408 kts 239°
2026-05-04 23:37 28.66992 -78.48412 36079 ft 408 kts 239°
2026-05-04 23:37 28.63830 -78.53769 36078 ft 408 kts 239°
2026-05-04 23:38 28.60664 -78.59124 36075 ft 408 kts 239°
2026-05-04 23:38 28.57496 -78.64476 36074 ft 408 kts 239°
2026-05-04 23:39 28.54328 -78.69823 36066 ft 409 kts 239°
2026-05-04 23:39 28.51129 -78.75217 36076 ft 412 kts 239°
2026-05-04 23:40 28.47929 -78.80602 36072 ft 409 kts 239°
2026-05-04 23:40 28.44745 -78.85956 36072 ft 409 kts 239°
2026-05-04 23:41 28.41556 -78.91313 36073 ft 409 kts 239°
2026-05-04 23:41 28.38361 -78.96670 36072 ft 409 kts 239°
2026-05-04 23:42 28.34669 -79.01612 36070 ft 417 kts 225°
2026-05-04 23:42 28.29708 -79.05158 36071 ft 430 kts 210°
2026-05-04 23:43 28.23971 -79.07348 36047 ft 437 kts 205°
2026-05-04 23:43 28.18198 -79.09489 36071 ft 437 kts 205°
2026-05-04 23:44 28.13397 -79.11281 36071 ft 437 kts 205°
2026-05-04 23:44 28.07618 -79.13434 36068 ft 437 kts 205°
2026-05-04 23:45 28.01831 -79.15586 36071 ft 438 kts 205°
2026-05-04 23:45 27.95106 -79.18082 36066 ft 438 kts 205°
2026-05-04 23:46 27.90268 -79.19876 36069 ft 437 kts 205°
2026-05-04 23:46 27.84492 -79.22016 36065 ft 437 kts 205°
2026-05-04 23:47 27.78715 -79.24154 36064 ft 437 kts 205°
2026-05-04 23:47 27.72942 -79.26288 36061 ft 437 kts 205°
2026-05-04 23:48 27.67171 -79.28420 36057 ft 437 kts 205°
2026-05-04 23:48 27.61402 -79.30546 36048 ft 436 kts 205°
2026-05-04 23:49 27.55635 -79.32671 36055 ft 436 kts 205°
2026-05-04 23:49 27.49874 -79.34792 36051 ft 436 kts 205°
2026-05-04 23:50 27.44108 -79.36912 36051 ft 436 kts 205°
2026-05-04 23:50 27.38342 -79.39029 36055 ft 436 kts 205°
2026-05-04 23:51 27.32579 -79.41144 35836 ft 436 kts 205°
2026-05-04 23:51 27.29697 -79.42200 35472 ft 436 kts 205°
2026-05-04 23:51 27.26808 -79.43259 34711 ft 439 kts 205°
2026-05-04 23:52 27.23916 -79.44322 33450 ft 447 kts 204°
2026-05-04 23:52 27.20926 -79.45418 31998 ft 456 kts 204°
2026-05-04 23:52 27.17903 -79.46520 30978 ft 456 kts 205°
2026-05-04 23:52 27.14893 -79.47614 30257 ft 453 kts 205°
2026-05-04 23:53 27.11917 -79.48694 29740 ft 445 kts 205°
2026-05-04 23:53 27.08999 -79.49755 29420 ft 436 kts 205°
2026-05-04 23:53 27.06122 -79.50804 28797 ft 434 kts 205°
2026-05-04 23:53 27.03264 -79.51848 28191 ft 430 kts 205°
2026-05-04 23:54 27.00433 -79.52882 27587 ft 426 kts 205°
2026-05-04 23:54 26.97625 -79.53906 26970 ft 422 kts 205°
2026-05-04 23:54 26.94844 -79.54920 26379 ft 418 kts 205°
2026-05-04 23:54 26.92088 -79.55925 25773 ft 416 kts 204°
2026-05-04 23:55 26.89348 -79.56923 25134 ft 414 kts 204°
2026-05-04 23:55 26.86624 -79.57912 24560 ft 410 kts 204°
2026-05-04 23:55 26.81227 -79.59861 23351 ft 404 kts 204°
2026-05-04 23:56 26.78565 -79.60819 22739 ft 399 kts 204°
2026-05-04 23:56 26.75938 -79.61763 22173 ft 394 kts 204°
2026-05-04 23:56 26.73346 -79.62696 21593 ft 389 kts 204°
2026-05-04 23:56 26.70792 -79.63616 21016 ft 384 kts 204°
2026-05-04 23:57 26.68261 -79.64527 20442 ft 379 kts 204°
2026-05-04 23:57 26.65764 -79.65427 19911 ft 374 kts 204°
2026-05-04 23:57 26.63330 -79.66300 19658 ft 361 kts 204°
2026-05-04 23:57 26.60950 -79.67151 19422 ft 359 kts 204°
2026-05-04 23:58 26.58554 -79.67998 18985 ft 364 kts 203°
2026-05-04 23:58 26.56132 -79.68847 18500 ft 364 kts 203°
2026-05-04 23:58 26.53726 -79.69686 17916 ft 361 kts 202°
2026-05-04 23:58 26.51374 -79.70506 17336 ft 356 kts 202°
2026-05-04 23:59 26.49023 -79.71327 16768 ft 351 kts 202°
2026-05-04 23:59 26.46789 -79.72313 16274 ft 340 kts 212°
2026-05-04 23:59 26.44846 -79.73745 15808 ft 329 kts 223°
2026-05-04 23:59 26.43236 -79.75535 15666 ft 332 kts 231°
2026-05-05 00:00 26.41689 -79.77476 15466 ft 335 kts 230°
2026-05-05 00:00 26.41161 -79.78126 15398 ft 334 kts 230°
2026-05-05 00:00 26.38579 -79.81299 15025 ft 331 kts 232°
2026-05-05 00:00 26.37214 -79.83365 14811 ft 330 kts 237°
2026-05-05 00:01 26.35918 -79.85463 14682 ft 325 kts 237°
2026-05-05 00:01 26.34649 -79.87499 14592 ft 313 kts 237°
2026-05-05 00:01 26.33431 -79.89445 14432 ft 300 kts 237°
2026-05-05 00:01 26.32246 -79.91337 13995 ft 296 kts 236°
2026-05-05 00:02 26.31089 -79.93185 13782 ft 287 kts 236°
2026-05-05 00:02 26.29935 -79.95029 13580 ft 292 kts 236°
2026-05-05 00:02 26.28774 -79.96880 13385 ft 291 kts 236°
2026-05-05 00:02 26.27619 -79.98721 13192 ft 289 kts 236°
2026-05-05 00:03 26.26459 -80.00538 12991 ft 288 kts 232°
2026-05-05 00:03 26.24950 -80.02011 12809 ft 292 kts 212°
2026-05-05 00:03 26.23044 -80.02804 12621 ft 295 kts 194°
2026-05-05 00:03 26.21023 -80.03216 12404 ft 296 kts 194°
2026-05-05 00:04 26.18909 -80.03596 12197 ft 322 kts 194°
2026-05-05 00:04 26.16635 -80.04111 12067 ft 339 kts 196°
2026-05-05 00:04 26.14336 -80.04678 12014 ft 336 kts 196°
2026-05-05 00:04 26.12087 -80.05216 11925 ft 325 kts 195°
2026-05-05 00:05 26.09920 -80.05714 11804 ft 311 kts 195°
2026-05-05 00:05 26.07855 -80.06174 11654 ft 295 kts 195°
2026-05-05 00:05 26.05872 -80.06619 11257 ft 287 kts 196°
2026-05-05 00:05 26.03936 -80.07115 11004 ft 287 kts 197°
2026-05-05 00:06 26.01991 -80.07643 10767 ft 288 kts 197°
2026-05-05 00:06 26.00054 -80.08166 10538 ft 285 kts 197°
2026-05-05 00:06 25.98153 -80.08671 10308 ft 285 kts 197°
2026-05-05 00:06 25.96223 -80.09178 10069 ft 284 kts 197°
2026-05-05 00:07 25.94300 -80.09679 9884 ft 283 kts 196°
2026-05-05 00:07 25.92403 -80.10237 9742 ft 281 kts 202°
2026-05-05 00:07 25.90614 -80.11118 9614 ft 280 kts 211°
2026-05-05 00:07 25.88905 -80.12142 9487 ft 280 kts 211°
2026-05-05 00:08 25.87184 -80.13153 9357 ft 279 kts 211°
2026-05-05 00:08 25.85461 -80.14156 9236 ft 280 kts 211°
2026-05-05 00:08 25.83741 -80.15150 9102 ft 278 kts 210°
2026-05-05 00:08 25.82022 -80.16144 8974 ft 279 kts 210°
2026-05-05 00:09 25.80300 -80.17137 8855 ft 278 kts 210°
2026-05-05 00:09 25.78588 -80.18123 8729 ft 277 kts 210°
2026-05-05 00:09 25.76881 -80.19107 8599 ft 276 kts 210°
2026-05-05 00:09 25.75169 -80.20093 8325 ft 278 kts 210°
2026-05-05 00:10 25.73507 -80.21145 8037 ft 272 kts 220°
2026-05-05 00:10 25.72316 -80.22746 7808 ft 271 kts 244°
2026-05-05 00:10 25.71793 -80.24748 7573 ft 271 kts 258°
2026-05-05 00:10 25.71414 -80.26780 7405 ft 265 kts 258°
2026-05-05 00:11 25.71175 -80.28745 7190 ft 250 kts 267°
2026-05-05 00:11 25.71119 -80.30622 6949 ft 238 kts 267°
2026-05-05 00:11 25.71053 -80.32400 6726 ft 225 kts 266°
2026-05-05 00:11 25.70976 -80.34109 6366 ft 221 kts 266°
2026-05-05 00:12 25.70890 -80.35824 5817 ft 224 kts 266°
2026-05-05 00:12 25.70803 -80.37559 5353 ft 225 kts 266°
2026-05-05 00:12 25.70717 -80.39280 4935 ft 224 kts 267°
2026-05-05 00:12 25.70631 -80.41027 4431 ft 228 kts 267°
2026-05-05 00:13 25.70544 -80.42791 4012 ft 229 kts 267°
2026-05-05 00:13 25.70457 -80.44507 3883 ft 217 kts 266°
2026-05-05 00:13 25.70332 -80.46159 3612 ft 215 kts 265°
2026-05-05 00:13 25.70183 -80.47778 3369 ft 213 kts 264°
2026-05-05 00:14 25.70031 -80.49410 3077 ft 213 kts 265°
2026-05-05 00:14 25.69890 -80.51029 2996 ft 213 kts 265°
2026-05-05 00:14 25.69750 -80.52675 2990 ft 215 kts 266°
2026-05-05 00:14 25.69616 -80.54313 2985 ft 211 kts 265°
2026-05-05 00:15 25.69483 -80.55942 2982 ft 214 kts 265°
2026-05-05 00:15 25.69390 -80.57594 2971 ft 214 kts 273°
2026-05-05 00:15 25.69849 -80.59115 2982 ft 210 kts 307°
2026-05-05 00:15 25.70955 -80.60117 2980 ft 206 kts 342°
2026-05-05 00:16 25.72344 -80.60267 2984 ft 199 kts 16°
2026-05-05 00:16 25.73574 -80.59638 2980 ft 197 kts 33°
2026-05-05 00:16 25.74744 -80.58867 2978 ft 195 kts 33°
2026-05-05 00:16 25.75912 -80.58101 2979 ft 193 kts 33°
2026-05-05 00:17 25.77070 -80.57345 2983 ft 194 kts 32°
2026-05-05 00:17 25.78241 -80.56574 2986 ft 195 kts 33°
2026-05-05 00:17 25.79403 -80.55803 2984 ft 196 kts 33°
2026-05-05 00:17 25.80573 -80.55030 2983 ft 195 kts 33°
2026-05-05 00:18 25.81742 -80.54250 2982 ft 196 kts 35°
2026-05-05 00:18 25.82608 -80.53138 2986 ft 193 kts 69°
2026-05-05 00:18 25.82725 -80.51678 2982 ft 194 kts 103°
2026-05-05 00:18 25.82215 -80.50273 2977 ft 198 kts 113°
2026-05-05 00:19 25.81650 -80.48890 2868 ft 195 kts 113°
2026-05-05 00:19 25.81123 -80.47520 2623 ft 191 kts 107°
2026-05-05 00:19 25.80659 -80.46158 2413 ft 186 kts 110°
2026-05-05 00:19 25.80167 -80.44847 2160 ft 182 kts 110°
2026-05-05 00:20 25.79689 -80.43563 1914 ft 179 kts 110°
2026-05-05 00:20 25.79235 -80.42301 1678 ft 172 kts 108°
2026-05-05 00:20 25.78821 -80.41122 1481 ft 153 kts 107°
2026-05-05 00:20 25.78471 -80.40059 1492 ft 149 kts 103°
2026-05-05 00:21 25.78305 -80.38939 1373 ft 143 kts 89°
2026-05-05 00:21 25.78340 -80.37852 1195 ft 143 kts 84°
2026-05-05 00:21 25.78402 -80.36752 1012 ft 142 kts 85°
2026-05-05 00:21 25.78442 -80.35687 838 ft 142 kts 85°
2026-05-05 00:22 25.78479 -80.34584 642 ft 144 kts 86°
2026-05-05 00:22 25.78516 -80.33474 488 ft 143 kts 85°
2026-05-05 00:22 25.78568 -80.32413 262 ft 136 kts 85°
2026-05-05 00:22 25.78613 -80.31311 119 ft 144 kts 85°
2026-05-05 00:23 25.78658 -80.30245 31 ft 129 kts 85°
2026-05-05 00:23 25.78697 -80.29422 27 ft 78 kts 88°
2026-05-05 00:23 25.78711 -80.29034 24 ft 30 kts 88°
2026-05-05 00:23 25.78726 -80.28829 26 ft 23 kts 77°
2026-05-05 00:24 25.78803 -80.28692 22 ft 21 kts 41°
2026-05-05 00:24 25.78916 -80.28592 28 ft 20 kts 36°
2026-05-05 00:24 25.79027 -80.28506 25 ft 19 kts 33°
2026-05-05 00:24 25.79104 -80.28448 24 ft 10 kts 42°
2026-05-05 00:25 25.79102 -80.28391 27 ft 6 kts 109°
2026-05-05 00:25 25.79083 -80.28352 30 ft 5 kts 120°
2026-05-05 00:25 25.79067 -80.28320 27 ft 4 kts 120°
2026-05-05 00:25 25.79047 -80.28283 27 ft 8 kts 120°
2026-05-05 00:26 25.79016 -80.28225 27 ft 10 kts 120°
2026-05-05 00:26 25.78978 -80.28147 27 ft 14 kts 118°
2026-05-05 00:26 25.78928 -80.28048 28 ft 15 kts 120°
2026-05-05 00:26 25.78877 -80.27943 28 ft 16 kts 111°
2026-05-05 00:27 25.78877 -80.27817 25 ft 17 kts 87°
2026-05-05 00:27 25.78883 -80.27682 24 ft 15 kts 87°
2026-05-05 00:27 25.78898 -80.27567 29 ft 15 kts 79°
2026-05-05 00:27 25.78919 -80.27453 25 ft 16 kts 78°
2026-05-05 00:28 25.78927 -80.27339 21 ft 11 kts 88°
2026-05-05 00:28 25.78928 -80.27301 22 ft 0 kts 88°
2026-05-05 00:30 25.78930 -80.27262 20 ft 8 kts 78°
2026-05-05 00:30 25.78947 -80.27232 23 ft 8 kts 27°
2026-05-05 00:30 25.78986 -80.27246 21 ft 7 kts 320°
2026-05-05 00:31 25.79016 -80.27277 22 ft 7 kts 315°
2026-05-05 00:31 25.79031 -80.27294 24 ft 0 kts 314°